GFSFLT1_con_mucape_015.txt.gz
CAPE
161 169 163 181 220 359 523 322 287 124 79 55 48 58 16 13 19 23 23 2 0 0 1 0 0 0 0 0 0 0 0 0
259 201 168 246 362 444 450 261 142 102 67 35 8 23 22 30 9 0 0 0 0 0 0 0 0 0 0 0 0 0 0 0
364 298 310 412 459 397 231 102 35 14 7 9 4 0 0 0 0 0 0 0 0 0 0 0 0 0 0 0 0 0 0 0
508 314 100 6 18 27 0 0 0 0 0 0 0 0 0 0 0 0 0 0 0 0 0 0 0 0 0 0 0 0 0 0
17 0 0 0 0 0 0 0 0 0 0 0 0 0 0 0 0 0 0 0 0 0 0 0 0 0 0 0 0 0 0 0
0 0 0 0 0 0 0 0 0 0 0 0 0 0 0 0 0 0 0 0 0 0 0 0 0 0 0 0 0 0 0 4
5 0 0 0 0 0 0 0 0 0 0 0 0 0 0 0 0 0 0 0 0 0 0 0 0 0 0 8 4 1 0 0
6 2 3 0 0 0 0 0 0 0 0 0 0 0 0 0 0 0 0 0 0 0 0 0 0 0 6 5 1 0 0 0
2 4 7 0 0 0 0 0 0 0 0 0 0 0 0 0 0 0 0 0 0 0 0 0 0 9 9 0 0 0 0 0
1 0 0 0 0 0 0 0 0 0 0 0 0 0 0 0 0 0 0 0 0 0 0 0 11 16 0 0 0 2 1 7
0 0 0 0 0 1 8 0 3 6 3 0 0 0 0 0 0 0 0 0 0 0 0 12 17 19 0 0 2 3 4 0
0 0 0 2 5 9 17 2 3 8 0 0 0 0 0 0 0 0 0 0 0 0 7 12 15 16 7 4 2 0 0 0
1 4 5 11 14 24 22 13 7 0 0 0 0 0 0 0 0 0 0 0 0 0 0 6 10 28 3 0 0 0 0 0
9 11 5 11 15 26 41 17 0 0 0 0 0 0 0 0 0 0 0 0 0 0 0 10 9 24 3 0 0 0 0 0
8 13 16 18 26 22 9 0 0 0 0 0 0 0 0 0 0 0 0 0 0 18 25 22 8 5 4 0 0 0 0 0
6 16 18 19 14 3 3 0 0 0 0 0 0 0 0 0 0 0 0 0 4 38 27 8 1 1 0 0 0 0 0 0
3 15 21 14 5 1 0 0 0 0 0 0 0 0 0 0 0 0 0 0 2 9 0 0 0 0 2 0 0 0 0 0
2 22 20 21 5 0 0 0 0 0 0 0 0 0 0 0 0 0 0 0 0 2 6 14 5 2 0 0 0 0 0 0
8 20 29 15 0 3 0 0 0 0 0 0 0 0 0 0 0 0 0 0 0 1 2 0 0 0 0 0 0 0 0 0

GFSFLT1_con_mucape_018.txt.gz
CAPE
403 497 504 655 962 1212 1181 745 524 199 70 45 43 20 16 13 0 0 0 0 0 0 0 0 0 0 0 0 0 0 0 1
505 634 735 823 1001 1095 1009 549 393 275 129 41 0 3 8 0 0 0 0 0 0 0 0 0 0 0 0 0 0 0 0 1
565 802 876 948 1001 966 867 640 355 121 51 46 43 13 0 0 0 0 0 0 0 0 0 0 0 0 0 0 0 0 1 19
691 864 1127 1059 827 874 654 277 36 12 3 0 0 0 0 0 0 0 0 0 0 0 0 0 0 0 0 1 0 1 2 7
776 549 410 589 303 16 0 0 0 0 0 0 0 0 0 0 0 0 0 0 0 0 0 0 0 0 1 6 1 0 0 0
29 8 22 0 0 0 0 0 0 0 0 0 0 0 0 0 0 0 0 0 0 0 0 0 0 3 5 0 0 0 0 10
0 0 0 0 0 0 0 0 0 0 0 0 0 0 0 0 0 0 0 0 0 0 2 9 12 11 9 0 0 4 6 1
0 4 0 0 0 0 0 0 0 0 0 0 0 0 0 0 0 0 0 0 0 0 0 0 15 24 6 7 9 34 1 0
0 0 0 0 0 0 0 0 0 0 0 0 7 17 2 0 0 0 0 0 0 0 0 3 23 20 8 4 60 50 25 16
0 0 0 0 0 0 0 0 0 0 0 1 0 6 0 0 0 0 0 0 0 0 4 21 42 46 48 43 70 61 49 33
0 0 0 0 0 0 0 0 5 0 3 0 0 0 0 0 0 0 0 0 0 0 4 30 46 61 80 55 73 70 44 38
0 0 0 0 2 1 0 1 7 3 7 1 0 0 0 0 0 0 0 0 0 0 0 15 48 56 36 69 82 97 60 22
0 0 2 3 6 1 0 6 9 7 0 0 0 0 0 0 0 0 0 0 0 2 6 15 34 54 62 68 91 42 13 22
0 0 2 6 8 1 3 1 11 0 0 0 0 0 0 0 0 0 0 0 1 6 15 39 42 54 60 55 5 0 21 25
0 1 3 6 4 11 6 3 0 0 0 0 0 0 0 0 0 0 0 0 2 9 36 45 53 15 11 10 5 0 0 0
0 1 0 4 8 11 0 0 0 0 0 0 0 0 0 0 0 0 0 1 6 17 21 41 41 30 7 0 0 0 15 2
0 0 0 2 7 6 1 0 0 0 0 0 0 0 0 0 0 0 2 3 6 10 20 50 64 14 0 5 0 0 0 0
0 0 0 8 14 15 0 1 0 0 0 0 0 0 0 0 0 0 3 4 8 15 36 50 35 0 0 0 0 0 0 0
0 0 2 12 14 8 7 0 0 0 0 0 0 0 0 0 0 0 6 11 14 28 36 26 8 0 0 0 0 0 0 0

GFSFLT1_con_mucape_021.txt.gz
CAPE
650 607 408 404 788 1380 1428 1219 752 622 230 95 110 109 89 10 1 0 0 0 0 0 0 0 0 0 0 0 0 0 0 3
828 853 840 914 1319 1613 1207 940 792 461 613 598 423 19 5 1 0 0 0 0 0 0 0 0 0 0 0 1 5 3 0 0
924 1072 1151 1183 1342 1437 1198 940 810 787 670 345 102 144 14 0 0 0 0 0 0 0 0 0 0 0 0 0 0 0 0 1
1016 1180 1299 1427 1216 1066 953 851 769 437 256 66 27 0 0 0 0 0 0 0 0 0 0 0 0 0 0 0 2 6 1 1
1139 1297 1444 1356 1256 1190 838 501 212 45 2 0 0 12 40 0 0 0 0 0 0 0 0 0 0 0 0 2 1 8 5 8
1168 1184 939 766 392 258 100 5 0 0 0 0 0 0 0 0 0 0 0 0 0 0 0 0 2 3 4 12 21 20 20 38
378 282 153 41 2 0 0 0 0 0 0 0 0 0 0 0 0 3 6 0 0 0 0 0 0 2 12 23 35 26 43 46
2 0 0 0 0 0 0 0 0 0 0 0 0 0 0 1 0 8 0 0 0 0 0 0 0 0 12 21 24 29 69 43
0 0 0 0 0 0 0 0 0 0 0 0 0 0 4 0 0 0 0 0 0 0 0 0 1 9 20 33 22 73 62 54
0 0 0 0 0 0 0 0 0 0 0 0 0 4 0 0 0 0 0 0 0 0 0 0 6 12 24 51 74 82 59 52
0 0 0 0 0 0 0 0 0 0 0 0 1 2 1 0 0 0 0 0 0 0 0 0 0 10 71 82 60 65 81 88
0 0 0 0 0 0 0 0 0 0 0 0 9 16 0 0 0 0 0 0 0 0 0 0 2 8 26 39 45 59 66 91
1 0 0 0 0 0 0 1 4 0 0 1 8 0 0 0 0 0 0 0 0 0 0 4 14 27 27 49 50 69 75 44
12 1 0 0 0 0 3 4 4 4 3 4 0 0 0 0 0 0 0 0 0 0 4 10 18 33 41 51 35 31 35 38
51 3 0 0 0 5 7 4 3 9 18 0 0 0 0 0 0 0 0 0 0 3 7 13 32 34 28 26 15 31 35 33
21 0 0 0 0 22 22 0 0 11 31 0 0 0 0 0 0 0 0 1 3 5 9 20 32 33 13 14 19 39 34 25
0 0 0 0 0 13 0 0 9 11 15 0 0 0 0 0 0 0 0 1 6 7 14 20 36 28 0 0 0 0 5 19
0 0 0 0 0 0 0 11 35 21 5 0 0 0 0 0 0 0 0 4 9 19 21 17 29 14 0 0 0 0 3 13
0 0 0 0 0 0 14 37 30 10 4 0 0 0 0 0 0 0 0 6 14 13 20 24 23 5 0 0 0 0 8 9

GFSFLT1_con_mucape_024.txt.gz
CAPE
317 215 142 307 1051 1048 900 989 490 397 154 46 117 203 146 5 8 1 0 0 0 0 0 0 0 0 0 0 0 0 0 0
542 633 597 551 1311 1373 1187 742 498 485 229 190 267 178 14 3 0 0 0 0 0 0 0 0 0 0 0 0 0 0 0 0
844 871 1002 1199 1573 1483 931 772 615 498 458 398 187 5 1 0 0 0 0 0 0 0 0 0 0 0 0 0 0 0 0 0
922 1070 1192 1419 1450 1295 968 776 712 735 547 165 26 9 0 0 0 0 0 0 0 0 0 0 0 0 0 0 0 0 0 0
896 1088 1245 1245 1096 954 964 764 738 311 138 9 1 0 0 0 0 0 0 0 0 0 0 0 0 0 0 0 0 0 0 0
977 1136 1162 944 1109 1167 906 491 195 96 0 0 0 0 0 0 0 0 0 0 0 0 0 0 0 0 0 0 0 0 0 0
926 1212 953 784 659 462 171 79 8 0 0 0 0 0 0 0 0 0 0 0 0 0 0 0 0 0 0 0 6 7 5 3
919 752 515 237 90 42 6 0 0 0 0 0 0 0 0 0 0 10 4 0 0 0 0 0 0 0 0 2 0 0 5 2
304 225 72 1 0 0 0 0 0 0 0 0 0 0 0 0 9 22 15 0 0 0 0 0 0 0 0 4 0 4 3 8
27 0 0 0 0 0 0 0 0 0 0 0 0 0 0 1 14 19 0 0 0 0 0 0 0 0 1 4 14 18 33 27
0 0 0 0 0 0 0 0 0 0 0 0 0 0 0 11 21 0 0 0 0 0 0 0 0 0 0 3 30 22 16 16
0 0 0 0 0 0 0 0 0 0 0 0 3 7 5 15 1 0 0 0 0 0 0 0 0 0 7 11 9 17 15 17
0 0 0 0 0 0 0 0 0 0 0 4 7 11 9 16 0 0 0 0 0 0 0 0 0 2 6 7 6 13 15 9
13 0 0 0 0 0 0 0 0 0 21 4 11 15 27 1 0 0 0 0 0 0 0 0 0 5 24 7 10 0 0 0
129 10 1 0 0 0 0 0 0 0 42 12 6 20 23 0 0 0 0 0 0 0 0 0 5 8 9 4 0 0 1 2
79 161 61 41 32 4 0 0 0 25 36 7 34 30 18 0 0 0 0 0 0 0 0 0 4 18 3 3 2 0 0 0
40 143 144 121 90 50 0 0 0 6 3 24 22 22 0 0 0 0 0 0 0 2 0 2 7 6 8 2 0 0 0 0
2 40 91 95 38 0 0 0 0 5 8 24 14 0 0 0 0 0 0 0 0 1 8 1 2 1 0 0 0 0 0 0
0 8 49 36 22 1 1 0 0 5 14 7 3 2 0 0 0 0 0 0 0 0 2 3 3 5 0 1 0 0 0 0

GFSFLT1_con_mucape_027.txt.gz
CAPE
54 51 280 358 343 313 451 582 584 521 253 36 2 13 8 0 0 0 8 5 0 0 0 0 0 0 0 0 0 0 0 0
84 19 193 385 463 415 543 518 481 400 49 55 71 57 6 0 5 9 0 0 0 0 0 0 0 0 0 0 0 0 0 0
219 296 218 741 732 701 638 611 516 308 119 54 115 6 0 0 0 0 0 0 0 0 0 0 0 0 0 0 0 0 0 0
515 505 850 1131 895 917 702 694 583 342 144 154 143 0 0 0 0 0 0 0 0 0 0 0 0 0 0 0 0 0 0 0
623 666 695 1196 1159 1193 765 603 395 286 301 371 190 0 0 0 0 0 0 0 0 0 0 0 0 0 0 0 0 0 0 0
732 834 1007 1226 1162 896 722 387 384 508 566 132 2 5 0 0 0 0 0 0 2 2 0 0 0 0 0 0 0 0 0 0
844 970 1021 974 886 790 641 465 194 90 8 0 0 0 0 0 0 0 7 7 12 8 2 0 0 0 0 0 0 0 0 0
889 1021 1007 791 767 710 676 382 164 137 78 4 0 0 0 0 0 0 2 8 12 1 0 0 0 0 0 0 0 0 0 0
1012 972 862 764 634 353 338 232 139 101 2 0 0 0 0 0 0 1 3 14 5 0 0 0 0 0 0 0 0 0 0 0
846 874 876 850 566 299 207 119 46 0 0 0 0 0 0 4 6 4 18 10 1 0 0 0 0 0 0 0 0 1 12 14
685 702 569 402 88 1 0 0 0 0 0 0 3 8 12 14 9 14 17 3 0 0 0 0 0 0 0 0 0 0 1 2
383 155 34 7 0 0 0 0 0 0 0 0 1 3 3 8 4 8 13 1 0 0 0 0 0 0 0 0 0 0 2 0
250 55 0 0 0 0 0 0 0 0 0 0 4 0 3 23 30 36 1 0 0 0 0 0 0 0 0 0 0 0 0 0
184 43 0 0 0 0 1 2 6 0 0 19 26 9 5 13 33 0 9 0 0 0 0 0 0 0 0 0 1 0 1 0
107 27 10 4 19 26 37 52 79 81 46 20 36 13 12 17 1 9 0 1 0 0 0 0 0 0 0 0 3 12 7 0
125 64 58 57 51 61 71 70 73 81 44 1 10 11 12 13 0 0 0 0 3 0 0 0 0 0 0 0 11 10 13 1
0 24 70 61 57 68 73 71 65 39 3 7 18 9 9 10 1 0 0 4 0 0 0 0 0 0 0 0 1 2 0 0
0 15 62 73 80 60 54 47 14 8 18 19 14 12 8 6 0 0 0 0 0 0 0 0 0 0 0 0 0 0 0 0
0 0 12 70 67 60 49 26 41 23 22 13 9 3 1 0 0 0 0 0 0 0 0 0 0 1 0 0 0 1 2 0

GFSFLT1_con_mucape_030.txt.gz
CAPE
699 714 747 684 382 521 327 382 338 270 220 164 77 0 0 3 4 0 0 0 0 0 0 0 0 0 0 0 0 0 0 0
591 812 683 345 253 487 346 334 434 339 276 145 31 31 50 41 3 0 0 0 0 0 0 0 0 0 0 0 0 0 0 0
359 746 717 404 323 401 303 254 501 514 381 143 77 78 137 74 0 0 0 0 0 0 0 0 0 0 0 0 0 0 0 0
91 401 522 488 428 449 478 392 549 602 537 271 111 90 37 23 0 0 0 0 0 0 0 0 0 0 0 0 0 0 0 0
149 173 382 494 516 543 722 567 541 543 409 215 136 112 2 0 0 0 0 0 0 0 0 2 0 0 0 0 0 0 0 0
313 409 598 528 593 752 677 710 738 650 266 139 157 13 0 0 0 0 0 0 0 1 2 0 3 0 0 0 0 0 0 0
452 656 866 892 845 925 842 799 721 443 313 170 291 126 14 14 20 16 0 0 1 9 1 8 0 0 0 0 0 0 0 0
593 813 1088 1144 1088 1005 686 558 374 372 454 526 568 391 124 71 73 26 16 6 19 3 5 4 0 0 0 0 0 0 0 0
726 848 995 1175 1145 769 530 392 501 83 338 100 26 62 71 37 12 21 29 15 0 1 1 0 0 0 0 0 0 0 0 0
861 991 1061 1043 846 648 592 541 387 236 139 70 72 82 69 44 35 27 6 0 0 0 4 0 0 0 0 0 0 0 0 0
923 1030 1041 1006 742 683 682 532 419 302 290 119 42 11 13 15 15 0 1 4 1 7 1 0 0 0 0 0 0 0 0 0
969 1025 986 885 763 603 463 369 335 233 137 13 2 4 11 9 11 13 31 7 3 5 0 0 0 0 0 0 0 0 0 0
755 742 705 622 507 314 47 11 2 23 51 81 58 34 24 20 28 22 17 21 4 11 0 0 0 0 0 0 0 0 0 0
656 680 695 552 260 49 1 0 3 38 60 77 75 57 18 17 13 12 6 3 1 0 0 0 0 0 0 0 0 0 0 4
658 600 467 282 157 115 87 53 42 40 48 56 40 61 12 8 9 3 0 0 0 0 0 0 0 0 0 0 0 0 10 13
524 346 208 122 87 58 30 37 35 42 57 59 45 32 13 10 9 9 4 0 0 0 0 0 0 0 0 0 0 0 4 10
0 8 42 44 51 47 44 40 42 67 55 35 41 31 22 16 13 10 4 0 0 0 0 0 0 0 0 0 0 0 0 0
0 0 0 5 40 74 53 52 58 79 57 31 33 30 17 14 10 7 4 0 0 0 0 0 0 0 0 0 0 0 0 0
0 0 0 8 45 64 71 71 71 74 59 57 38 13 5 5 7 0 0 0 0 0 0 0 0 0 0 0 0 2 1 2

GFSFLT1_con_mucape_033.txt.gz
CAPE
140 105 108 285 512 596 576 517 477 235 276 333 459 473 359 146 1 0 6 0 0 0 0 0 0 0 0 0 0 0 0 0
349 289 223 413 640 718 534 334 318 267 310 327 378 275 123 12 7 0 0 0 0 0 0 0 0 0 0 0 0 0 0 0
578 531 489 573 726 744 548 317 291 320 334 306 212 123 36 18 30 37 0 0 0 0 0 0 0 0 0 0 0 0 0 0
675 697 664 638 740 586 584 369 379 326 281 231 197 73 46 62 62 65 0 0 0 0 0 0 0 0 0 0 0 0 0 0
586 701 722 737 543 454 496 517 399 414 389 373 268 96 44 105 63 53 1 0 0 0 0 0 0 0 0 0 0 0 0 0
362 562 640 786 569 253 368 411 285 345 501 542 382 225 73 101 51 7 0 0 0 0 0 0 0 0 11 8 0 0 0 0
324 261 406 636 711 334 271 340 382 275 495 524 414 151 138 86 18 3 9 13 13 1 0 0 7 7 12 0 1 0 0 0
322 333 335 402 465 500 457 516 473 405 584 610 409 177 79 83 22 49 58 45 37 4 3 18 15 6 9 0 0 0 0 0
375 481 559 382 423 493 433 620 697 683 750 542 317 85 217 128 94 80 57 39 19 14 12 4 0 9 8 0 0 0 0 0
336 590 727 728 751 837 789 691 751 693 395 290 311 310 363 346 203 87 55 33 25 4 7 4 3 7 1 0 0 0 0 0
419 570 841 983 1062 1029 847 791 580 460 376 165 339 343 68 62 44 20 19 24 15 10 1 6 10 1 0 0 0 0 0 0
543 629 754 941 1058 1159 823 697 563 462 391 250 95 56 72 41 23 25 18 14 4 14 7 10 17 11 0 0 0 0 0 0
710 804 924 1036 1112 1031 888 661 604 525 342 280 93 52 30 45 55 26 32 25 13 14 5 6 6 5 0 0 0 0 0 0
769 899 989 1052 1114 1056 819 674 527 332 179 135 54 39 53 51 37 26 7 10 9 16 12 5 1 0 0 0 0 0 0 0
653 777 940 1061 960 776 601 494 331 123 66 20 28 38 44 47 32 27 15 10 15 14 8 6 0 0 0 0 0 0 0 0
589 699 751 747 671 561 386 228 108 47 27 40 48 44 51 53 31 13 15 17 12 11 11 3 0 0 0 0 0 0 0 0
149 307 417 374 326 216 152 95 50 50 42 38 62 58 29 23 11 25 14 10 13 5 0 0 0 0 0 0 0 0 0 0
0 0 0 3 6 8 18 17 46 48 42 48 61 61 46 35 35 18 14 8 0 0 0 0 0 0 0 0 0 0 0 0
0 0 0 0 0 0 0 3 27 48 61 73 71 39 48 30 23 18 4 0 0 0 0 0 0 0 0 0 0 0 0 0

GFSFLT1_con_mucape_036.txt.gz
CAPE
14 28 16 0 65 258 280 322 331 339 78 9 100 323 394 398 342 235 66 39 45 45 33 35 1 0 0 0 0 0 0 0
107 78 22 35 174 337 390 379 361 389 73 145 279 414 449 431 269 48 0 17 15 18 0 0 0 0 0 0 0 0 0 0
208 178 115 135 237 371 485 474 460 458 192 177 269 361 332 204 55 16 25 40 0 0 0 0 0 0 0 0 0 0 0 0
287 294 234 190 288 364 584 630 561 536 463 192 200 222 236 163 47 34 33 33 1 0 0 0 0 0 0 0 0 0 0 0
480 428 437 297 326 388 598 757 659 319 239 225 241 239 172 58 20 17 19 36 6 0 0 0 0 0 0 0 0 0 0 0
485 491 519 509 409 405 568 794 817 367 251 321 296 227 149 149 36 32 20 48 7 0 0 0 0 0 0 0 1 2 0 0
362 352 494 609 638 544 556 711 661 614 343 330 290 272 266 165 100 61 60 51 4 0 2 8 9 6 0 0 3 0 1 0
281 325 274 458 658 677 692 572 462 496 409 370 380 337 293 166 61 74 79 50 26 49 53 57 50 3 15 5 4 3 0 0
398 305 290 278 442 638 690 660 192 122 323 353 176 331 342 163 90 81 74 50 63 82 72 58 4 14 12 10 8 9 0 0
355 350 295 292 303 322 470 663 424 333 286 369 430 413 447 129 82 57 68 71 75 99 80 44 20 44 16 9 8 2 0 0
16 108 257 244 319 429 418 379 510 525 505 499 484 578 387 246 142 120 128 107 74 87 83 43 23 6 12 5 2 0 0 0
56 228 412 414 401 419 492 660 707 690 758 690 668 534 375 250 111 85 73 69 74 62 58 23 5 21 18 9 5 0 0 0
212 298 383 487 596 663 716 862 843 733 698 434 358 426 206 60 58 41 28 36 24 18 10 19 13 13 13 3 0 0 0 0
324 456 539 604 642 825 942 981 951 798 577 397 264 84 69 48 10 29 24 26 15 0 2 8 4 3 0 0 0 0 0 0
275 475 577 726 833 807 887 913 745 645 490 190 76 55 43 28 40 32 35 14 18 4 10 8 4 0 0 0 0 0 0 0
114 304 501 642 726 762 665 612 560 435 135 75 59 54 35 31 40 31 35 13 20 9 1 4 0 0 0 0 0 0 0 0
129 232 314 304 212 215 316 356 284 185 129 71 71 59 37 43 53 53 44 12 0 22 0 0 0 0 0 0 0 0 0 0
0 0 0 0 0 0 0 0 0 0 4 37 58 65 51 61 61 38 10 3 23 6 18 0 0 0 0 0 0 0 0 0
0 0 0 0 0 0 0 0 0 0 3 28 58 68 90 100 87 38 34 25 0 0 0 0 0 0 0 0 0 0 0 0

GFSFLT1_con_mucape_039.txt.gz
CAPE
81 100 64 85 119 153 161 259 349 325 331 8 57 160 226 342 398 247 115 107 176 139 64 28 4 18 0 0 0 0 0 0
107 121 122 104 139 233 281 332 313 300 295 44 77 233 179 308 334 272 130 90 24 4 10 14 11 0 0 0 0 0 0 0
256 169 153 167 139 254 440 393 296 322 303 75 83 103 174 389 297 183 99 1 0 5 7 7 1 0 0 0 0 0 0 0
268 201 209 206 202 248 396 416 322 328 348 173 69 124 215 307 222 110 27 3 1 2 2 0 0 0 0 0 0 0 0 0
524 294 275 265 233 278 345 374 476 439 440 433 190 121 217 215 152 91 28 8 8 3 10 0 0 0 0 0 0 0 0 0
521 596 512 445 418 497 462 413 425 585 624 607 552 343 201 146 100 83 42 28 41 33 31 0 0 0 0 1 1 3 0 0
470 533 687 664 626 601 566 493 364 595 623 429 433 311 201 165 173 118 76 65 48 57 31 3 8 21 18 19 16 2 1 0
490 468 450 743 686 627 585 507 437 539 533 438 371 288 256 238 253 233 142 78 55 57 42 31 30 30 36 9 10 6 0 0
419 494 498 598 710 662 706 714 580 542 308 404 459 408 336 260 277 263 181 61 48 37 40 40 47 64 59 3 3 2 0 0
25 108 510 541 528 543 617 706 728 592 300 130 196 303 325 142 185 194 301 54 54 42 50 63 64 71 29 9 4 0 0 0
11 78 151 255 449 476 468 517 668 683 361 272 297 290 350 356 274 265 83 70 35 67 43 49 81 51 4 0 0 0 2 0
6 41 248 270 294 362 408 499 568 472 532 549 530 531 446 367 296 297 135 87 68 52 38 44 24 1 0 0 0 0 0 0
32 183 381 488 485 411 353 345 372 362 414 498 600 604 388 352 313 165 110 78 60 75 63 28 1 3 0 0 0 0 0 0
82 161 240 294 402 474 531 535 596 584 573 565 528 448 314 185 198 84 42 51 46 25 23 22 7 3 0 0 0 0 0 0
57 203 341 450 545 659 698 735 759 577 482 379 283 186 119 66 44 34 49 35 23 22 7 11 1 4 6 0 0 0 0 0
11 103 276 446 621 723 744 738 650 523 402 319 257 99 56 55 55 50 51 50 27 12 4 1 0 0 0 0 0 0 0 0
56 188 290 340 286 249 202 146 121 54 16 38 72 73 60 49 69 43 51 40 1 4 11 0 0 0 0 0 0 0 0 0
0 0 0 0 0 0 0 0 0 0 0 0 0 2 15 68 42 31 33 11 5 8 0 0 0 0 0 0 0 0 0 0
0 0 0 0 0 0 0 0 0 0 0 0 0 0 0 10 20 13 50 9 0 0 0 0 0 0 0 0 0 0 0 0

GFSFLT1_con_mucape_045.txt.gz
CAPE
177 74 21 3 21 4 0 86 145 390 547 236 100 8 115 54 107 352 608 685 542 517 411 266 121 41 18 0 0 0 0 0
306 128 57 60 86 207 155 145 146 426 485 214 50 2 4 59 256 401 620 692 502 459 394 268 138 52 4 0 0 0 0 0
411 479 312 365 252 217 167 120 167 539 592 505 119 28 0 62 254 658 740 762 617 440 478 221 104 10 1 0 0 0 0 0
364 515 557 429 334 286 263 307 476 529 506 561 387 61 72 51 292 503 791 760 705 478 405 144 32 10 6 1 0 0 0 0
218 285 672 702 591 582 605 574 574 552 612 791 466 121 244 478 682 626 640 837 622 360 148 46 5 16 17 18 0 0 0 0
416 268 178 569 801 672 746 662 635 753 880 746 1042 485 398 545 718 771 825 587 399 156 38 25 36 37 32 24 1 0 2 0
460 526 392 277 387 943 1318 719 659 774 978 940 1061 1044 892 1059 1063 734 498 371 190 62 58 61 35 33 39 24 0 0 9 8
438 482 668 652 584 731 1115 756 597 920 1331 1126 1254 1337 1316 617 700 649 346 249 38 34 72 110 131 179 91 25 7 36 34 27
594 479 604 854 1025 1037 1083 943 994 857 1191 1007 1134 1346 1196 759 372 176 115 91 70 62 169 249 268 105 84 48 19 24 47 50
565 665 718 881 1209 1749 2070 1623 1253 1101 1382 830 825 1123 902 966 474 312 175 81 105 155 207 179 145 37 56 15 6 41 2 4
265 486 770 999 1221 1829 2646 2052 1777 1430 1161 1157 976 874 629 521 386 248 216 196 191 293 169 42 25 13 36 14 15 22 6 13
372 391 440 690 1049 1358 1798 2162 2155 1781 1651 1412 1158 688 612 508 318 261 254 145 111 183 64 33 19 30 32 35 27 15 11 3
460 662 783 877 923 1088 1544 1833 1925 1864 1677 1447 1333 786 733 472 727 383 251 56 26 20 25 46 46 23 30 58 22 29 0 1
446 869 1082 1143 1188 1269 1429 1518 1541 1528 1650 1577 1234 879 708 860 522 446 326 66 47 39 67 45 48 49 89 30 35 23 10 0
317 836 1068 1170 1345 1351 1442 1512 1540 1467 1376 1226 929 656 375 307 293 240 147 84 114 61 58 72 44 75 48 29 1 12 0 0
118 801 1054 1251 1340 1373 1373 969 745 636 618 539 368 359 335 262 224 158 100 55 52 76 47 28 5 21 0 0 0 0 0 0
494 853 1088 1126 1063 1019 622 435 537 392 388 406 301 233 130 88 53 25 0 1 0 2 12 8 8 10 2 0 0 0 0 0
387 611 707 707 519 449 542 478 395 226 114 45 3 0 0 0 0 0 0 0 1 2 3 3 0 1 0 0 0 0 0 2
1 6 40 144 245 271 120 34 6 0 0 0 0 0 0 0 0 0 0 0 0 0 0 0 0 0 0 0 0 0 0 0

GFSFLT1_con_mucape_048.txt.gz
CAPE
35 7 0 0 0 0 0 0 0 0 62 0 7 28 88 71 61 110 397 531 572 522 417 258 87 100 39 8 1 0 0 0
60 1 0 0 0 0 0 0 0 15 35 9 33 5 37 60 43 75 465 462 551 507 374 271 108 104 25 19 0 0 0 0
77 23 3 0 0 0 0 0 0 22 30 48 81 2 0 16 60 197 615 457 459 394 375 232 95 124 46 0 0 0 0 0
137 96 8 3 7 0 0 0 0 5 162 282 246 31 2 0 34 537 695 675 547 457 354 398 154 120 11 5 4 1 1 0
234 262 176 118 104 85 145 85 49 9 363 344 397 104 31 0 6 384 567 613 547 534 496 416 178 63 23 14 14 23 11 0
448 383 434 269 320 319 256 175 186 285 349 470 320 490 34 135 118 372 452 559 600 567 409 472 132 39 31 23 36 31 23 1
243 294 453 477 481 574 428 403 348 476 408 290 593 479 399 429 633 490 575 477 533 463 717 227 69 43 61 40 46 62 48 3
353 271 186 430 630 613 696 736 573 596 789 558 634 685 778 662 726 443 350 167 200 181 143 55 29 56 95 95 96 80 56 20
351 407 289 263 324 821 839 837 682 673 745 1071 706 621 854 874 632 515 292 122 23 126 87 35 40 96 130 77 92 43 25 3
454 399 553 525 418 468 756 841 788 641 813 985 749 425 826 1022 892 588 320 68 43 90 108 87 119 171 135 123 31 41 1 0
368 519 531 536 699 650 729 747 659 792 797 1098 805 349 222 877 756 500 270 177 109 149 95 148 274 123 45 18 27 3 3 10
283 364 492 619 659 779 1052 1213 1125 1121 1247 1184 956 729 448 720 653 498 287 159 95 276 125 224 162 10 18 39 38 17 2 28
445 462 564 578 691 1236 1849 1842 1766 1544 1345 1238 1090 926 779 589 318 319 336 217 326 209 110 98 128 40 43 66 30 11 22 11
224 676 811 881 971 1032 1433 1872 1886 1413 1530 1317 1304 1144 927 659 541 450 437 413 304 215 40 23 21 42 59 27 25 9 11 1
45 565 891 1132 1195 1302 1489 1575 1647 1493 1339 1276 1332 1111 897 846 532 514 573 313 307 124 44 137 58 30 28 13 5 8 4 1
6 263 909 1204 1330 1388 1412 1323 1273 1276 1002 1180 1206 991 742 564 408 325 229 196 134 112 74 8 18 23 23 12 18 14 4 0
39 186 906 1191 1189 1300 1286 1163 1009 1022 685 589 514 494 213 238 229 159 117 67 10 0 0 0 0 5 6 8 7 0 0 0
263 550 1100 1081 1066 1071 904 454 337 405 396 345 308 306 213 68 0 0 0 0 0 0 0 0 2 2 2 0 0 0 0 0
294 657 778 708 688 629 464 297 329 314 267 144 46 10 0 0 0 0 0 0 0 0 0 0 0 0 0 0 0 0 0 0

GFSFLT1_con_mucape_051.txt.gz
CAPE
0 0 0 0 1 6 0 0 2 4 3 0 2 10 30 34 14 27 178 107 128 341 326 265 192 97 22 0 0 0 0 0
0 0 0 0 0 0 0 0 0 0 1 0 0 0 6 3 11 25 53 162 229 350 330 255 230 97 52 19 1 0 0 0
0 0 0 0 0 0 0 0 0 0 0 0 0 0 9 32 6 38 15 171 248 355 360 362 216 125 55 33 35 5 0 0
0 0 0 0 0 0 0 0 0 0 0 0 0 13 45 0 7 0 21 317 302 331 438 333 236 167 56 53 44 25 7 1
0 0 0 0 0 0 0 0 0 0 0 0 0 0 33 1 0 1 256 319 285 360 385 284 260 237 79 84 28 23 18 28
19 0 0 0 0 0 0 0 0 0 0 0 0 8 31 0 0 0 284 383 371 303 312 278 274 238 163 73 45 68 56 32
17 41 1 35 18 0 0 0 0 0 0 0 37 129 146 53 0 0 217 262 296 258 179 217 251 240 198 48 47 65 125 83
94 113 53 79 99 79 7 0 0 0 0 0 60 190 168 149 40 31 110 218 277 118 68 139 181 138 79 87 47 43 80 17
173 195 197 205 203 117 126 96 93 78 135 146 183 291 291 249 45 293 225 154 270 96 143 152 163 149 103 50 46 64 55 98
137 217 217 175 274 256 245 238 184 214 240 282 262 167 209 313 274 407 345 354 309 178 46 54 146 153 190 80 97 54 26 26
126 107 125 147 259 308 349 293 310 288 401 503 492 429 330 513 703 535 576 495 349 287 92 55 117 223 89 67 159 20 61 54
111 122 139 177 162 235 413 344 225 403 369 381 586 774 796 640 605 673 567 441 300 233 157 145 170 168 130 127 46 61 60 23
149 198 155 210 265 185 242 307 342 398 558 443 559 541 430 734 395 676 615 395 292 244 140 138 85 88 139 120 78 17 36 50
216 242 334 429 460 509 289 289 288 277 343 679 718 507 575 649 588 603 428 369 251 180 199 89 141 217 81 24 28 45 9 9
245 332 469 523 620 956 764 627 592 502 671 799 893 863 844 894 725 776 412 335 298 167 117 188 154 69 35 25 24 10 17 15
32 352 503 622 750 1027 1054 1066 1115 986 1088 1122 1080 1048 1017 753 822 869 469 294 240 132 158 174 50 4 25 12 22 18 16 2
0 0 597 855 1004 1029 1030 1059 1081 1112 1111 1064 1035 1079 1010 736 586 611 206 142 135 42 59 0 9 6 8 10 0 6 9 12
0 52 839 957 1021 1083 1058 925 904 979 1010 959 885 755 764 459 290 143 59 16 0 0 0 0 0 0 4 1 1 0 0 0
110 562 740 814 860 982 973 760 622 611 593 598 488 325 191 137 33 0 0 0 0 0 0 0 0 0 0 0 0 0 0 0

GFSFLT1_con_mucape_054.txt.gz
CAPE
0 0 4 5 13 5 1 21 21 22 29 11 4 3 2 2 9 64 79 65 102 188 143 188 96 82 87 34 9 0 0 0
0 0 0 0 0 2 4 0 3 0 1 3 4 3 10 0 24 24 6 32 55 106 186 212 131 77 77 56 16 0 0 0
0 0 0 0 0 0 1 1 3 4 13 1 0 8 2 0 0 0 0 0 36 61 95 211 150 117 88 55 29 17 1 2
0 0 0 0 0 0 0 0 0 0 0 0 0 1 0 0 0 0 0 0 0 48 144 215 214 125 175 70 61 20 37 21
0 0 0 0 0 0 0 0 0 0 0 0 0 0 0 0 0 0 0 0 0 49 112 197 159 181 201 148 63 38 35 36
0 0 0 0 0 0 0 0 0 0 0 0 0 0 0 0 0 0 0 0 32 45 119 179 147 105 117 154 67 52 49 55
3 0 0 0 0 0 0 0 0 0 0 0 0 0 0 0 2 23 16 2 48 86 145 176 128 88 102 134 63 68 53 57
21 5 0 0 0 0 0 0 0 0 0 0 0 0 0 2 19 34 2 3 97 172 117 126 76 1 65 79 107 128 70 43
85 73 20 0 0 0 0 0 0 0 0 0 0 1 37 30 51 74 67 0 37 114 152 141 51 22 124 92 74 99 68 67
164 127 133 120 72 19 1 0 0 0 0 0 0 20 44 109 94 88 158 36 26 85 135 174 37 194 184 129 131 117 151 57
186 205 182 157 126 78 67 86 72 48 23 15 23 34 21 76 144 221 222 104 149 223 141 96 153 61 107 128 151 57 55 73
160 222 215 196 178 125 135 103 99 104 112 111 97 88 68 84 91 173 247 204 199 252 287 149 227 68 60 105 113 91 60 72
113 159 203 230 241 284 270 231 229 183 167 66 69 130 95 50 171 257 407 198 225 247 226 212 141 102 126 121 74 36 71 34
102 129 130 141 157 234 292 331 326 271 240 225 244 314 345 231 281 318 272 174 302 205 167 155 102 78 77 49 23 60 32 22
61 157 183 189 219 297 351 374 399 407 423 279 221 307 362 364 289 99 168 247 383 377 395 275 89 29 28 111 44 29 21 11
40 128 177 333 387 434 369 335 448 501 560 288 427 499 514 594 535 378 416 742 463 197 364 269 82 34 38 97 29 9 15 4
0 118 165 394 683 657 593 590 605 482 436 533 358 389 512 619 457 514 552 423 244 205 66 62 64 45 78 4 5 0 7 12
0 106 146 319 756 818 838 805 787 773 752 645 595 703 728 564 603 429 408 183 162 132 112 61 15 5 6 4 7 6 7 3
0 0 162 446 639 762 858 947 963 785 610 601 438 468 446 468 299 195 115 113 53 10 2 1 3 2 1 1 2 2 1 0

GFSFLT1_con_mucape_057.txt.gz
CAPE
0 0 1 29 22 23 9 24 11 15 17 4 16 99 83 72 82 113 119 136 204 162 162 177 140 67 41 97 63 37 0 0
0 0 0 2 4 3 0 8 6 6 35 30 2 74 82 41 63 72 114 142 140 186 177 159 195 164 153 112 89 51 12 5
0 0 0 0 0 5 2 0 4 4 23 11 5 5 20 6 27 15 50 64 71 78 119 180 160 103 91 83 69 56 30 26
0 0 0 0 0 0 0 2 1 5 3 2 4 1 8 14 9 0 14 4 5 0 37 29 134 146 93 76 59 48 58 58
0 0 0 0 0 0 0 0 0 0 0 6 0 1 0 5 6 3 9 3 0 0 1 25 81 151 151 125 101 89 70 57
0 0 0 0 0 0 0 0 0 0 0 0 0 0 0 0 0 0 0 0 0 0 7 41 53 121 146 148 103 103 86 61
23 2 0 0 0 0 0 0 0 0 0 0 0 0 0 0 0 0 0 0 0 0 9 29 20 49 151 113 93 89 54 55
68 47 0 0 0 0 0 0 0 0 0 0 0 0 0 0 0 0 0 0 7 23 15 53 57 57 106 58 42 96 73 70
99 77 44 0 0 0 0 0 0 0 0 0 0 0 0 0 0 0 0 0 4 28 12 33 66 155 138 51 1 87 76 85
58 106 95 35 35 1 0 0 0 0 0 0 0 0 0 0 0 3 3 23 33 51 112 33 57 142 107 56 24 90 94 100
79 104 139 99 47 22 0 0 0 0 0 0 0 0 0 0 0 32 23 30 26 58 140 99 46 105 138 58 85 122 131 158
97 102 135 175 134 125 63 16 11 0 0 0 0 0 0 0 0 0 19 84 99 144 130 107 48 69 106 142 128 87 101 111
79 91 87 140 173 189 167 112 92 74 18 0 0 3 19 14 15 9 28 29 73 105 142 149 0 110 114 79 56 69 82 90
48 104 90 114 131 154 170 169 154 143 114 48 50 34 33 65 50 59 35 48 55 63 245 155 172 139 144 240 70 107 182 35
53 76 97 95 102 103 140 181 193 185 200 191 186 142 95 97 46 46 69 159 146 55 214 171 183 175 251 208 137 57 72 22
7 39 79 86 88 108 128 157 210 212 216 229 291 216 211 131 154 272 363 380 310 300 380 286 342 376 234 109 95 29 42 13
0 13 49 86 130 133 108 116 113 127 150 179 205 261 303 348 205 304 502 463 453 170 139 469 316 103 141 53 4 10 9 23
0 3 47 132 155 176 163 175 149 126 157 177 239 294 383 409 366 500 442 373 379 193 279 318 191 147 127 46 24 5 8 5
0 0 12 68 186 252 285 257 203 152 159 245 281 334 404 354 246 126 209 250 210 258 302 152 138 77 61 19 4 5 2 5

GFSFLT1_con_mucape_060.txt.gz
CAPE
0 0 0 12 8 18 36 21 40 43 35 5 66 90 139 117 126 136 66 29 21 16 15 20 49 61 59 84 106 90 65 18
0 0 0 0 2 0 0 15 29 19 3 9 3 0 31 42 59 66 64 75 79 56 65 74 77 82 61 67 77 92 72 46
0 5 4 0 0 0 0 1 6 5 1 9 4 0 39 89 100 101 100 106 134 179 201 161 167 130 147 134 123 102 71 51
0 1 3 0 0 0 0 1 9 4 34 12 4 60 4 60 84 37 28 39 61 77 118 141 180 148 123 107 86 67 83 50
0 0 1 1 0 0 0 0 8 2 2 6 5 3 3 0 5 40 41 46 48 16 26 35 53 93 113 115 83 53 44 31
14 0 0 0 0 0 0 0 0 0 1 0 0 2 5 5 0 0 0 4 10 8 12 7 6 40 90 82 77 65 52 63
34 5 0 0 0 0 0 0 0 0 0 0 0 0 0 1 0 0 0 0 0 0 5 0 3 43 47 34 73 79 77 75
23 51 6 0 0 0 0 0 0 0 0 0 0 0 0 0 0 0 0 0 0 0 0 0 4 14 12 18 27 47 47 45
15 82 45 23 0 0 0 0 0 0 0 0 0 0 0 0 0 0 0 0 0 0 0 0 18 26 15 21 20 28 54 45
27 47 89 73 30 0 0 0 0 0 0 0 0 0 0 0 0 0 0 0 0 0 0 0 0 1 42 9 29 72 52 39
15 76 67 81 83 55 3 0 0 0 0 0 0 0 0 0 0 0 0 0 0 0 0 0 2 25 56 57 42 80 66 26
11 41 76 75 93 105 99 14 0 0 0 0 0 0 0 0 0 0 5 6 21 11 15 23 31 123 66 91 71 71 92 45
0 11 31 61 81 108 131 108 92 47 13 0 0 0 0 0 0 0 0 0 0 0 0 6 32 112 99 99 26 69 97 88
0 4 17 31 53 73 86 105 138 129 132 114 27 4 0 1 0 2 3 9 9 1 0 8 78 118 159 177 45 51 74 121
0 0 21 53 48 48 51 74 99 112 124 123 118 131 46 0 30 20 22 33 35 32 1 14 46 71 44 147 151 139 126 351
0 0 16 38 44 44 42 43 50 50 63 79 90 100 110 153 128 75 41 49 91 78 56 63 102 194 140 212 195 228 138 75
1 0 0 1 10 28 36 57 57 34 62 61 60 64 86 134 236 210 136 103 131 136 117 194 200 252 287 313 238 145 77 53
9 4 0 0 17 34 50 58 63 87 86 83 90 70 56 79 152 197 218 190 176 135 170 284 165 248 259 219 188 84 69 55
4 2 1 1 26 50 75 78 87 85 78 82 81 78 70 88 149 182 224 281 252 187 290 432 455 117 189 163 117 58 54 57

GFSFLT1_con_mucape_063.txt.gz
CAPE
0 2 2 17 41 52 3 21 62 24 5 1 11 3 64 67 46 21 76 56 51 71 63 57 47 38 52 56 72 85 71 62
0 1 0 0 17 4 2 36 19 2 0 12 4 1 65 106 75 28 79 51 63 121 128 94 90 115 86 57 56 83 82 83
0 2 0 0 0 0 0 10 10 7 10 4 11 0 5 57 73 46 72 65 86 124 155 178 134 148 114 75 66 77 67 93
0 0 0 0 0 0 0 0 1 3 16 12 5 5 77 56 72 60 86 107 148 182 189 200 206 256 231 175 83 86 110 52
0 0 0 0 0 0 0 0 0 4 18 3 0 9 7 5 45 57 56 99 138 118 110 121 175 225 180 141 58 103 111 83
0 0 0 1 0 0 0 0 3 0 9 8 6 0 0 8 0 53 82 72 53 61 55 95 130 184 208 215 112 121 121 94
8 0 0 0 1 10 0 0 0 1 0 5 12 12 8 3 7 0 46 47 42 64 50 76 114 120 140 190 187 131 98 91
0 12 0 0 0 7 0 0 0 0 3 4 2 3 3 5 7 3 9 23 22 34 44 51 57 79 115 170 175 128 96 45
0 6 41 0 0 0 0 0 0 0 0 0 0 0 0 0 1 1 0 14 25 10 26 34 32 48 91 137 131 124 61 20
9 22 35 20 1 0 0 0 0 0 0 0 0 0 0 0 0 0 0 0 0 0 4 5 5 21 58 108 135 132 50 18
5 18 32 52 18 20 0 0 0 0 0 0 0 0 0 0 0 0 0 0 0 0 0 0 0 0 21 43 49 23 62 64
0 10 25 44 48 49 66 26 0 0 0 0 0 0 0 0 0 0 0 0 0 0 0 0 0 0 1 2 2 75 60 63
0 0 5 42 63 67 93 96 99 30 0 0 0 0 0 0 0 0 0 0 0 0 3 0 0 0 0 10 22 35 36 52
0 0 1 8 30 50 60 78 99 117 137 85 25 1 0 0 0 0 0 0 0 0 0 0 0 6 3 0 13 22 65 70
11 0 10 21 5 12 25 42 53 83 115 127 130 136 129 71 0 4 0 5 2 3 1 0 0 2 11 8 10 71 58 33
0 2 4 22 29 20 32 33 38 49 56 81 104 94 91 95 100 100 40 0 11 14 20 24 40 24 9 11 10 63 14 74
0 0 0 0 4 27 28 38 40 16 39 39 40 43 48 58 57 67 77 90 24 37 31 37 64 65 96 73 81 67 237 206
0 0 7 0 0 15 60 45 46 53 41 30 29 22 17 20 17 15 40 90 184 144 104 70 81 138 81 188 190 132 241 99
0 0 0 0 7 7 16 23 41 57 60 50 60 60 55 51 53 49 30 70 174 187 172 83 116 110 178 240 127 184 237 151

GFSFLT1_con_mucape_066.txt.gz
CAPE
0 1 0 7 19 24 22 23 29 19 4 3 4 4 7 55 62 136 115 85 107 94 80 110 121 173 133 98 108 74 39 15
0 0 4 7 13 19 12 11 23 19 9 0 0 2 80 23 37 70 138 103 146 196 103 126 153 167 235 200 200 155 97 76
0 0 6 13 0 2 7 12 1 10 9 2 0 7 7 18 12 43 75 121 81 119 167 144 150 165 208 266 251 210 219 122
2 0 3 4 0 0 0 0 4 3 5 7 3 8 2 53 66 68 68 100 33 79 166 162 202 215 220 237 244 278 282 211
102 0 0 8 0 0 0 0 0 5 1 10 10 0 0 3 38 43 42 108 62 69 200 246 273 330 291 293 286 267 322 303
210 24 0 0 8 3 20 0 0 2 1 3 4 3 0 3 1 72 31 67 129 139 249 273 311 409 316 490 321 372 373 479
269 113 2 0 2 12 16 17 0 0 6 4 3 0 8 0 9 28 26 26 93 93 123 249 277 254 301 316 356 503 333 430
298 182 55 0 0 7 8 15 19 2 1 5 1 2 9 2 3 10 13 5 24 35 124 203 180 166 195 218 323 306 360 365
296 247 137 7 0 0 10 10 10 13 17 0 0 0 3 2 11 0 0 11 42 27 107 149 137 194 202 239 370 239 332 411
261 240 205 102 0 0 0 1 3 10 17 18 0 0 0 10 23 8 8 5 32 79 130 83 106 129 142 160 261 215 287 499
196 258 220 146 36 0 0 0 0 2 5 9 10 8 10 13 27 24 18 38 40 73 88 64 96 76 68 101 196 158 218 541
196 233 263 194 94 10 2 0 0 0 1 5 5 7 15 18 14 13 11 14 10 11 9 19 29 27 64 122 95 82 139 195
189 237 212 220 157 53 12 27 32 0 0 0 3 7 4 6 9 11 31 30 17 10 4 0 1 22 69 119 171 23 44 8
23 180 228 217 212 145 55 43 49 51 23 0 0 2 5 2 2 1 3 5 35 33 17 42 34 23 23 44 26 0 0 1
7 73 177 247 228 213 140 86 37 35 54 59 57 20 1 6 1 1 3 1 0 5 22 8 37 16 8 39 12 1 7 11
0 0 72 214 275 244 196 153 104 60 34 58 90 96 84 74 64 69 43 5 2 2 3 5 27 13 17 44 4 13 16 11
0 0 1 28 184 279 226 200 163 126 83 98 51 65 82 76 66 63 50 67 83 77 4 3 13 0 0 0 26 30 37 33
0 0 3 4 41 168 289 293 230 156 131 116 90 91 78 64 46 29 36 32 26 38 71 80 21 3 3 31 27 44 59 63
0 0 0 0 0 20 162 241 299 274 219 155 125 109 126 111 77 50 32 52 51 60 36 60 108 111 99 82 66 88 108 83

GFSFLT1_con_mucape_069.txt.gz
CAPE
70 0 1 8 15 29 6 3 5 1 0 1 8 2 4 4 4 55 136 149 201 187 207 302 253 163 125 189 200 122 100 56
115 0 1 17 0 23 3 3 14 9 2 0 2 4 2 9 8 56 135 169 171 208 166 248 268 259 214 308 280 342 186 145
172 1 0 7 14 0 0 0 15 10 6 1 0 4 1 1 4 49 134 184 152 143 144 167 208 273 386 389 341 302 246 274
271 47 0 4 14 0 0 0 3 0 7 0 0 7 1 0 2 0 73 128 120 121 182 218 215 316 410 443 478 436 251 349
315 127 13 0 10 2 0 0 3 0 0 0 0 0 0 0 0 2 2 121 92 117 173 181 275 338 401 439 437 464 238 218
358 199 55 17 4 0 0 0 2 0 0 0 0 1 1 2 2 0 0 62 125 78 122 154 144 353 389 498 374 372 351 178
328 212 112 4 48 17 21 0 0 0 0 0 1 33 0 0 0 3 0 35 155 144 96 102 160 237 366 292 198 191 224 377
363 204 149 20 35 59 16 14 6 0 0 2 18 0 0 2 3 29 2 4 61 140 81 39 27 64 125 224 117 188 239 364
403 234 163 54 23 48 51 13 7 2 0 0 13 0 0 0 13 60 6 3 8 61 66 38 102 97 162 167 244 132 286 199
405 336 206 122 41 39 54 19 20 15 24 4 0 24 17 4 33 33 61 35 0 3 26 87 129 150 157 153 162 201 111 142
329 446 350 200 71 28 52 38 23 14 16 29 18 17 27 11 31 38 38 16 15 20 30 51 45 28 63 89 86 201 208 272
296 412 487 350 184 71 47 33 33 42 38 25 21 33 28 44 56 86 48 90 40 35 16 45 45 54 80 113 107 132 186 219
264 421 476 511 377 155 77 62 34 25 50 47 152 166 114 186 107 157 129 121 158 52 118 88 86 69 103 103 128 95 138 202
85 332 453 529 519 383 151 97 61 36 42 64 147 265 301 366 353 327 274 213 190 121 87 69 79 102 129 155 151 137 153 141
30 94 326 471 509 559 386 208 136 67 40 55 145 268 264 352 341 330 306 280 218 163 89 63 85 66 82 93 91 114 131 114
5 19 93 255 465 526 525 412 273 177 114 79 162 325 243 189 257 256 220 217 192 178 176 166 155 122 46 78 99 87 43 27
2 0 10 26 146 425 506 585 700 353 318 292 211 233 201 231 295 291 238 206 201 199 166 188 193 60 0 0 0 223 34 79
0 0 0 9 47 62 380 501 469 681 585 328 335 327 269 298 267 240 236 264 277 237 205 181 179 208 57 65 18 1 54 9
5 9 0 0 7 1 6 158 482 498 466 534 481 486 417 351 278 251 286 293 275 269 299 252 236 175 41 59 94 105 62 31

GFSFLT1_con_mucape_072.txt.gz
CAPE
226 45 2 0 15 3 0 1 8 0 0 1 10 27 23 4 4 13 5 3 15 90 78 92 78 32 153 75 51 60 8 1
209 55 24 0 16 5 4 0 0 1 0 0 5 0 0 0 9 25 18 11 76 128 132 195 161 130 121 195 178 167 131 100
181 60 7 0 4 6 0 0 0 3 0 0 0 1 0 0 9 7 7 22 67 78 88 132 164 163 157 173 157 143 118 91
188 74 0 0 4 5 0 4 0 1 2 0 4 9 3 0 0 1 1 24 33 58 71 102 143 156 169 182 160 144 125 123
246 94 22 0 4 4 6 5 0 0 0 0 0 0 0 0 3 2 5 42 56 72 83 96 92 126 218 197 201 174 153 73
242 122 45 0 0 3 2 0 0 0 4 6 0 0 0 0 0 5 4 0 25 56 81 135 127 130 191 188 175 152 115 62
266 176 41 11 6 2 4 4 1 1 1 0 0 0 0 0 0 0 4 5 43 23 47 112 128 179 183 107 106 79 94 33
233 162 36 13 12 3 13 3 0 3 0 12 4 0 0 0 0 2 9 7 3 31 18 59 45 70 174 171 107 61 57 24
251 176 59 10 57 14 4 10 8 14 5 5 8 0 0 0 0 0 10 9 5 4 8 13 24 34 32 25 30 54 48 33
279 228 91 30 37 64 26 13 4 7 2 4 0 0 0 0 0 0 9 8 10 9 3 24 2 0 3 2 14 21 28 27
268 297 170 71 33 46 82 20 1 0 3 2 2 4 12 0 0 0 22 0 1 0 13 28 11 11 8 7 9 11 20 29
265 317 290 161 52 35 38 47 19 23 2 0 1 0 8 14 0 0 0 20 0 0 0 0 5 8 2 14 15 16 20 18
325 288 423 231 157 36 29 30 21 35 28 4 0 7 3 8 5 2 0 0 0 0 0 0 0 0 5 4 8 7 8 2
222 401 442 441 320 142 42 48 37 44 57 51 37 6 3 6 0 0 2 1 0 0 0 0 0 0 0 0 0 0 0 0
48 217 364 530 589 507 243 126 71 40 46 77 62 76 39 35 15 6 1 10 4 0 0 0 0 0 0 0 0 0 0 0
29 27 118 309 577 723 581 352 220 100 47 40 85 109 112 91 69 83 59 20 22 0 1 0 0 0 0 0 0 0 1 3
0 0 0 0 193 459 584 646 430 282 191 83 57 81 132 125 125 138 122 92 62 48 30 14 11 0 0 0 0 0 0 0
6 22 18 1 0 8 57 506 640 493 373 286 194 118 99 138 138 122 115 108 100 94 80 73 53 34 30 21 16 0 11 10
0 10 13 54 56 57 56 64 79 611 566 442 338 234 170 138 123 120 128 128 117 92 96 88 85 80 90 107 87 47 22 12

GFSFLT1_con_mucape_075.txt.gz
CAPE
110 176 163 45 6 14 0 0 0 0 0 11 13 36 13 33 25 10 20 1 2 0 17 37 66 37 104 52 33 0 0 0
119 181 193 109 0 62 4 0 0 0 0 0 19 16 12 23 37 3 1 1 6 4 5 58 72 89 77 66 36 0 0 0
120 146 138 95 0 4 2 0 0 0 0 0 16 21 26 4 9 3 7 13 4 8 8 17 49 56 67 46 46 56 14 2
107 112 106 45 0 3 6 0 0 0 0 0 0 1 12 17 0 9 6 13 9 9 6 1 18 30 38 41 64 54 50 21
131 101 86 24 0 4 7 4 0 0 0 0 0 0 0 0 0 6 31 24 11 14 15 43 29 0 0 71 72 63 46 15
128 89 68 2 0 1 2 0 6 0 0 0 0 1 0 1 5 19 27 22 13 18 10 8 47 69 85 123 120 104 74 69
119 80 54 10 0 1 0 4 1 0 2 0 0 0 0 0 0 6 15 22 12 6 12 22 30 71 103 109 157 131 131 65
135 60 46 19 0 1 0 2 0 0 3 7 1 0 1 1 0 0 1 13 9 3 0 25 35 39 77 114 142 149 117 60
104 54 39 28 0 0 1 4 1 0 4 3 8 0 0 0 0 0 0 12 18 20 14 41 59 63 76 108 107 93 63 44
138 88 87 38 1 0 0 0 2 1 2 2 5 4 0 0 0 0 3 5 14 10 13 13 43 62 56 74 80 82 67 56
152 132 123 74 7 0 0 0 0 1 3 6 3 2 7 0 0 0 0 1 9 18 31 7 22 16 37 59 65 59 64 46
156 155 133 128 59 2 0 0 0 0 0 5 2 2 16 2 0 0 0 0 0 1 13 14 7 7 17 19 11 20 24 14
187 195 158 159 141 56 8 0 0 0 0 0 0 5 4 0 1 0 0 0 0 0 0 0 0 0 0 2 2 5 9 5
218 257 234 197 184 188 147 17 0 0 0 0 0 0 0 2 9 3 1 0 0 0 0 0 0 0 0 0 0 0 0 0
271 293 299 244 217 229 252 240 149 21 0 4 2 0 0 0 3 16 28 0 0 0 0 0 0 0 0 0 0 0 0 0
1 10 43 189 257 284 348 327 308 258 156 25 34 33 18 5 4 6 1 1 0 0 0 0 0 0 0 0 0 0 0 0
0 1 0 0 32 220 333 369 335 296 298 229 160 92 55 59 38 17 8 12 16 3 6 1 0 0 0 0 0 0 0 0
0 1 3 0 2 30 44 75 258 372 351 320 245 176 159 136 92 64 58 40 18 14 19 23 17 24 35 32 34 6 4 6
0 0 0 2 0 0 0 0 26 81 285 292 184 159 257 227 197 151 110 103 101 103 102 84 54 49 30 41 61 51 48 35

GFSFLT1_con_mucape_078.txt.gz
CAPE
197 173 154 183 149 39 0 0 4 0 3 27 43 76 70 35 35 36 11 29 3 0 2 1 0 0 0 0 0 0 0 0
187 143 122 138 124 89 0 0 0 0 7 9 27 51 59 6 32 17 12 25 5 6 4 2 12 0 0 5 0 0 0 0
143 140 140 140 104 85 0 0 0 4 3 3 6 27 38 11 9 2 35 12 2 3 11 4 6 0 6 14 3 11 0 0
133 149 152 139 102 37 0 0 0 0 0 0 10 32 14 6 10 7 11 15 6 1 0 9 19 14 13 15 12 21 2 0
136 154 142 144 85 1 0 0 0 0 0 1 0 3 0 10 24 21 9 1 10 8 1 20 11 58 30 34 33 39 10 9
125 160 146 129 57 0 0 1 0 0 0 0 0 0 0 12 8 8 7 8 11 11 5 13 31 49 64 47 50 41 39 4
119 159 153 109 12 0 1 5 1 0 0 0 0 0 0 0 0 0 0 6 5 4 17 8 15 7 9 21 25 34 66 59
134 188 170 88 0 0 1 8 2 2 0 0 0 0 0 0 0 0 2 5 4 19 9 13 46 46 18 1 26 65 68 66
173 212 153 92 5 0 0 0 3 3 2 2 1 0 0 0 0 0 0 1 17 32 25 19 9 24 10 30 52 91 111 107
215 198 144 75 21 0 0 0 2 15 1 4 5 0 0 0 0 0 0 2 9 16 24 14 28 34 32 63 77 86 100 112
195 193 141 77 41 1 0 0 1 4 2 2 5 6 4 0 0 0 0 0 2 12 21 23 13 13 18 48 78 82 66 64
145 172 146 105 78 3 0 0 0 0 3 5 2 3 5 4 0 0 0 0 0 0 1 10 7 12 20 45 43 42 49 41
151 164 177 151 126 57 0 0 0 0 0 2 4 3 0 5 4 4 0 0 0 0 0 1 5 3 3 4 6 19 25 35
177 190 226 188 183 174 164 89 0 0 0 0 0 0 0 1 1 1 5 2 0 0 0 0 0 0 1 0 0 4 6 1
168 198 263 212 175 147 121 151 163 123 35 0 0 0 0 0 2 2 1 5 13 0 0 0 0 0 0 0 0 0 0 0
199 187 226 200 209 185 146 151 187 180 197 179 134 39 0 0 0 0 0 2 8 44 21 0 0 0 0 0 0 0 0 0
26 31 58 102 188 205 112 139 130 165 192 217 177 99 92 75 53 22 0 5 7 0 15 6 0 0 0 0 0 0 0 0
0 5 1 2 7 11 13 29 51 121 164 91 84 102 124 123 108 103 95 89 54 16 5 9 19 28 11 1 0 1 2 4
0 0 1 3 0 0 0 0 3 5 49 121 117 108 94 125 131 121 106 100 79 83 94 87 52 46 35 38 24 12 20 25

GFSFLT1_con_mucape_081.txt.gz
CAPE
93 183 119 113 120 130 93 5 0 0 4 54 144 69 62 36 71 30 8 3 76 75 2 0 0 0 0 0 0 0 0 0
9 160 140 121 130 141 93 32 1 4 1 7 5 45 33 15 22 34 40 68 62 0 0 8 1 0 0 0 2 0 0 0
6 123 160 147 150 141 102 31 1 2 3 3 5 29 37 37 36 32 62 47 7 4 0 9 7 0 0 0 0 1 2 0
33 102 175 170 132 154 113 0 0 0 0 0 2 12 2 2 8 45 63 25 12 5 0 4 7 2 1 0 0 0 0 0
45 128 171 163 127 155 108 0 0 0 0 0 4 0 0 19 31 53 24 10 8 7 8 10 16 14 0 4 12 3 5 5
38 130 160 152 141 169 84 0 0 0 0 3 0 5 0 25 5 20 26 12 45 9 8 2 2 8 19 37 46 46 45 18
29 106 117 144 141 164 15 0 0 0 0 0 0 0 0 0 8 4 39 21 11 6 12 6 2 22 11 45 66 61 48 35
14 63 86 134 154 143 0 0 0 0 0 0 0 0 0 0 1 3 8 15 16 25 11 9 5 4 70 64 60 73 78 43
9 39 77 138 157 131 0 0 0 1 0 3 0 0 0 0 0 1 2 4 5 8 18 23 15 4 22 68 52 50 54 36
8 32 77 127 172 118 0 0 0 1 3 3 2 0 0 0 0 0 0 0 1 29 24 27 7 0 20 46 34 0 8 0
3 26 83 141 171 88 0 0 0 0 7 0 1 1 0 0 0 0 0 0 0 15 18 28 26 17 25 29 21 24 7 13
8 40 95 172 162 69 0 0 0 0 0 3 3 0 1 0 0 0 0 0 0 0 7 21 22 22 13 41 33 15 23 29
31 78 150 189 144 83 0 0 0 0 3 5 7 5 3 1 0 0 0 0 0 0 0 4 20 20 10 11 24 26 36 37
72 111 149 154 107 88 5 0 0 0 1 2 3 7 6 5 1 0 0 0 0 0 0 0 0 0 0 0 6 6 9 11
100 101 121 154 133 117 105 98 64 2 0 0 0 0 3 5 4 3 2 3 5 0 0 0 0 0 0 0 0 0 1 3
144 153 140 153 156 163 109 88 121 138 146 118 59 15 0 0 0 0 2 4 2 16 4 3 0 0 0 0 0 0 0 0
200 208 161 187 170 135 123 103 146 110 102 97 108 94 109 74 44 16 12 8 0 0 1 4 4 9 2 0 2 4 2 0
110 76 106 119 136 142 147 136 126 124 155 160 120 105 82 94 100 103 106 82 72 74 78 59 36 22 7 1 1 1 0 0
18 26 36 19 12 8 5 14 24 45 72 100 125 150 137 138 119 117 97 83 85 84 85 95 104 95 93 78 75 75 60 38

GFSFLT1_con_mucape_084.txt.gz
CAPE
0 0 110 158 187 296 188 139 138 257 175 238 31 139 60 23 11 16 38 23 76 69 34 40 67 5 32 2 0 0 1 10
0 0 35 92 181 165 146 121 97 5 75 18 25 16 30 72 34 72 30 4 34 37 28 33 71 1 10 0 0 7 4 5
0 0 31 102 193 137 129 151 91 2 0 2 3 17 18 35 35 28 6 35 34 41 28 55 23 0 7 0 0 0 1 26
1 19 29 122 162 125 136 153 106 2 3 3 5 24 29 26 25 31 49 27 22 69 55 88 0 0 0 0 0 0 0 11
6 35 45 113 135 141 155 160 96 2 2 3 1 0 0 6 20 21 22 21 51 76 71 14 10 0 0 0 0 0 8 10
8 4 48 53 126 143 160 166 37 0 3 0 0 7 9 4 22 5 29 55 59 56 15 0 0 0 0 3 0 29 15 13
0 12 38 43 108 164 152 170 0 1 0 1 4 5 0 16 10 38 19 22 57 25 6 6 12 10 8 4 34 47 42 27
0 7 25 44 92 156 143 161 1 2 0 1 3 4 1 1 23 19 37 39 28 14 7 17 12 21 5 0 0 64 58 29
0 10 31 38 135 133 141 153 7 1 0 0 6 9 0 7 0 3 33 31 35 30 31 23 15 22 17 0 82 75 92 84
0 2 20 19 70 112 149 108 1 17 0 2 5 1 0 12 0 0 25 24 17 26 16 1 4 16 19 7 0 0 50 43
0 4 12 3 33 96 147 40 0 4 0 1 5 0 0 0 0 0 5 16 9 9 10 12 27 23 4 5 14 20 5 49
6 27 7 1 37 96 165 8 0 0 2 1 0 19 2 0 0 0 0 0 0 0 4 7 19 35 6 5 3 31 46 45
0 0 1 7 42 126 105 0 0 0 2 1 6 3 3 3 0 0 0 0 0 0 0 4 27 15 17 21 15 5 30 24
1 1 7 15 87 182 56 0 0 0 0 5 4 6 7 3 4 0 0 0 0 0 0 0 4 10 13 16 25 21 26 38
35 14 17 56 199 136 61 0 0 0 0 0 1 1 2 5 2 5 0 0 0 0 0 0 0 0 1 1 5 0 2 7
80 65 61 147 170 91 60 26 46 34 40 43 25 7 0 0 0 0 0 1 1 1 0 0 0 0 0 0 0 0 0 0
106 104 111 164 138 110 100 112 149 103 112 125 117 98 72 40 14 0 0 0 0 0 0 0 3 0 2 0 0 1 1 2
95 122 128 133 88 116 102 75 76 82 97 123 104 97 95 99 90 82 71 61 49 37 37 33 56 41 32 10 7 2 1 1
132 139 139 84 44 33 121 91 85 89 101 93 95 106 76 102 103 99 95 107 92 83 68 110 130 89 72 68 61 80 136 90

GFSFLT1_con_mucape_087.txt.gz
CAPE
0 0 0 82 348 475 517 598 694 577 326 200 203 83 94 31 86 82 91 76 137 99 48 41 27 42 40 89 43 7 0 1
0 0 0 105 264 329 307 475 477 210 257 229 104 17 29 48 81 56 49 68 93 83 56 44 20 41 47 34 0 0 5 0
0 0 6 71 151 202 275 419 268 174 184 197 134 49 34 20 58 66 30 44 90 69 50 38 19 46 57 34 0 1 1 1
0 0 26 69 61 105 268 304 254 181 145 3 23 50 25 36 28 44 26 25 42 57 37 22 24 40 8 10 3 0 0 1
0 0 41 40 28 54 211 275 210 196 118 9 13 14 25 2 41 1 17 40 36 18 56 15 19 20 49 27 5 14 28 22
0 0 36 30 4 72 216 222 196 197 5 5 15 3 14 1 0 15 25 51 54 13 21 43 24 37 45 0 26 15 43 46
0 6 54 69 0 88 197 183 199 182 1 7 1 20 15 0 8 5 17 47 26 68 69 52 40 67 1 0 30 17 6 38
8 59 89 79 7 112 163 181 185 164 5 2 5 2 13 3 12 7 38 22 14 57 50 56 45 7 0 0 3 14 0 36
0 52 76 27 7 70 155 188 155 53 3 2 4 3 2 3 10 12 20 27 27 38 53 40 1 0 1 0 0 16 30 82
0 24 58 15 9 91 145 158 137 4 12 2 5 1 0 0 4 3 11 40 32 54 21 20 11 18 13 6 14 1 0 41
0 6 39 10 22 58 119 113 115 2 34 4 2 3 1 0 4 6 11 23 7 34 12 29 25 26 9 6 3 2 2 2
11 7 28 4 1 63 102 91 53 1 35 1 5 9 6 0 0 0 14 8 14 45 33 20 17 0 4 1 2 0 6 6
2 2 10 5 19 57 103 118 1 1 7 10 4 7 4 0 0 0 0 0 0 0 2 4 16 4 18 33 2 0 5 4
14 3 27 42 112 95 123 94 7 7 2 5 5 4 3 4 7 0 0 0 0 0 0 0 0 0 10 5 7 7 2 2
42 97 78 68 141 101 156 36 4 6 10 25 24 9 13 4 0 0 4 8 0 0 0 0 0 3 1 2 15 21 16 28
230 5 54 165 118 170 138 1 9 4 5 14 12 16 20 21 19 15 4 0 0 0 0 0 0 0 2 2 0 1 9 4
106 18 79 96 176 216 95 4 0 0 0 0 0 0 2 21 19 16 19 11 4 3 3 0 0 0 0 0 0 4 6 1
57 145 131 169 185 145 88 40 68 72 75 71 66 42 27 14 4 4 2 2 5 3 6 6 11 5 4 2 3 1 2 6
53 97 247 134 157 147 101 54 70 68 64 77 100 131 82 74 99 87 125 86 61 27 21 50 11 11 11 8 13 22 24 31

GFSFLT1_con_mucape_090.txt.gz
CAPE
0 0 0 0 14 472 1150 1824 1557 1258 1277 1253 1020 728 358 288 160 110 213 53 80 141 98 78 48 35 29 59 165 201 187 140
0 0 0 0 13 545 953 1634 1215 1127 1126 1046 820 570 281 114 40 88 156 93 88 136 82 40 21 30 26 127 160 214 150 159
0 0 0 0 64 576 909 1394 953 1183 1404 1239 732 358 282 112 12 7 21 44 91 108 72 40 18 25 19 201 188 176 180 172
0 0 0 7 176 580 829 1213 949 1288 1056 817 565 444 242 190 30 8 15 32 112 80 50 51 22 16 8 130 201 150 110 162
0 0 0 8 266 516 743 978 1177 1018 845 716 608 424 182 129 23 10 44 46 42 78 42 44 33 24 42 130 221 212 196 135
0 0 0 0 278 562 644 941 873 686 582 565 370 186 113 234 188 53 33 5 6 47 45 40 45 11 109 161 187 189 113 154
0 0 0 15 388 176 382 747 731 558 474 328 276 172 32 103 21 3 0 14 16 22 23 32 23 12 73 89 42 196 194 212
8 14 102 267 328 7 173 535 505 340 307 217 146 76 81 92 7 0 4 11 12 22 14 18 20 28 34 38 61 143 130 202
139 57 350 446 105 145 197 169 362 204 232 85 51 132 73 53 6 5 12 3 6 5 10 18 3 4 43 50 60 27 66 140
320 170 389 593 241 148 284 216 296 214 216 30 53 74 29 20 4 1 11 13 31 23 4 47 65 70 45 34 8 0 63 103
457 47 351 576 287 116 195 205 205 201 91 10 24 14 20 29 32 4 5 14 26 34 5 43 39 35 24 0 0 1 5 0
307 285 233 369 177 29 209 177 192 186 30 26 15 5 6 0 2 4 5 13 20 6 4 28 4 0 4 0 0 1 1 3
106 115 103 44 155 69 104 191 187 109 1 8 11 0 12 0 0 15 1 1 1 29 5 0 2 0 0 2 5 5 3 0
17 44 22 7 3 2 150 277 151 5 39 10 5 10 16 15 28 0 36 8 5 0 25 28 32 18 17 11 11 6 2 1
29 24 5 82 8 66 265 378 57 6 43 4 14 24 9 11 19 0 0 24 15 35 16 5 8 4 2 5 7 0 0 0
156 116 0 47 80 393 444 199 20 30 30 42 5 14 8 2 3 0 1 1 0 37 41 45 51 41 4 0 0 0 0 10
71 104 143 98 177 187 187 81 9 15 27 5 32 30 36 40 21 11 2 4 4 3 0 27 48 27 9 0 30 44 39 41
7 188 281 207 312 151 127 66 18 20 8 4 3 7 4 27 30 30 40 48 45 8 10 13 3 1 0 0 0 0 5 5
58 43 247 176 206 169 124 44 30 15 22 50 60 7 37 71 19 27 12 8 6 11 4 6 4 9 4 4 2 2 5 2

GFSFLT1_con_mucape_093.txt.gz
CAPE
0 0 0 0 0 0 146 1649 2566 1718 1884 1868 1607 1832 1566 1233 1228 1165 732 629 485 620 327 121 282 39 71 100 48 15 104 148
0 0 0 0 0 0 214 1164 2517 1913 1856 1875 1375 1511 1175 1265 1047 882 559 373 262 110 85 137 91 16 33 19 41 42 63 282
0 0 0 0 0 0 256 794 1806 1735 1742 1715 1747 1402 1243 932 739 363 333 232 132 21 98 57 19 25 35 23 32 32 55 154
0 0 0 0 0 0 172 707 1490 1616 1691 1727 1610 1247 811 819 568 544 402 226 65 45 87 46 37 30 30 13 39 32 105 94
0 0 0 0 0 28 265 677 1516 1300 1694 1659 1550 807 577 639 615 417 122 15 5 47 36 59 62 23 7 29 36 47 92 111
0 0 0 0 0 44 426 749 1364 1375 1735 1562 1583 1188 1015 662 586 499 179 6 11 76 34 47 52 14 7 25 16 118 112 161
0 0 0 0 0 380 721 912 1183 1302 1485 1434 1379 1136 809 394 609 615 184 43 5 22 39 42 31 20 24 6 64 91 133 236
18 2 0 0 0 541 921 939 1146 1229 1265 1235 1147 878 594 382 361 378 8 5 4 5 26 24 14 23 19 25 63 172 271 256
256 125 122 100 239 783 447 954 1039 1136 1136 1045 753 557 342 354 347 50 0 0 3 2 22 13 24 16 29 36 120 185 174 227
483 315 182 500 771 352 181 907 1028 945 830 764 448 332 316 325 107 0 6 0 0 5 13 30 16 13 27 21 56 70 93 136
6 531 225 707 625 172 306 652 843 561 455 426 272 385 224 175 49 0 0 0 0 5 10 27 24 17 8 27 19 40 100 142
25 88 595 777 691 134 306 470 679 455 269 180 282 168 92 129 79 3 0 0 0 12 5 14 4 23 21 12 5 30 26 3
14 318 353 497 461 183 109 567 547 367 229 328 448 154 60 41 24 0 2 0 5 25 20 6 33 33 36 22 2 0 0 0
35 112 247 389 244 243 127 356 389 219 161 242 235 129 59 19 5 4 0 0 3 3 3 0 1 0 2 0 0 0 0 1
1 90 86 32 27 10 135 395 282 254 115 117 160 109 133 69 70 57 5 3 11 3 3 26 15 1 2 3 1 1 7 9
6 191 88 34 33 12 28 397 421 125 65 158 127 78 71 109 83 53 41 53 7 0 0 2 21 13 6 4 10 11 8 4
3 185 247 54 39 68 329 537 243 40 73 49 58 41 23 32 53 36 0 0 29 38 46 50 46 4 12 0 0 5 1 5
0 38 24 273 170 202 284 471 124 55 33 67 10 11 3 4 2 5 3 1 4 0 15 15 18 22 6 7 10 11 11 17
0 1 2 133 61 243 246 338 113 58 52 48 6 9 21 4 10 7 7 4 6 4 3 11 7 7 4 4 1 4 9 7

GFSFLT1_con_mucape_096.txt.gz
CAPE
0 0 0 0 0 0 35 2978 2669 2255 2048 1598 2315 2268 1823 1638 1521 1294 1423 1293 1068 814 518 373 255 137 102 72 44 34 15 12
0 0 0 0 0 0 61 1808 2601 2146 1824 1529 2289 2207 1830 1914 1467 1356 1168 1089 684 802 712 236 148 89 83 45 40 35 16 35
0 0 0 0 0 0 31 1191 2460 1910 1664 1501 1236 1967 1714 1528 1328 904 972 1154 612 749 356 182 99 55 16 50 38 49 9 33
0 0 0 0 0 9 37 457 2481 2132 1692 1367 1172 1402 1426 1523 1430 759 1023 1075 813 483 264 164 97 35 29 42 29 39 6 24
0 0 0 0 0 13 0 161 730 2225 1636 1239 1411 1434 1111 860 727 1044 734 301 278 237 136 97 53 22 33 39 25 28 33 0
1 0 0 0 0 54 67 199 454 1872 1624 1429 1495 1317 1074 801 785 536 494 386 230 158 90 43 54 66 24 48 38 51 8 1
43 8 0 0 0 34 281 476 948 1705 1565 1524 1740 1311 1064 775 645 555 309 128 49 40 35 26 39 13 42 60 26 18 15 13
133 57 23 0 0 175 616 637 845 1520 1377 1564 1739 1380 1182 1045 633 464 428 146 28 13 1 26 7 27 46 23 22 10 17 15
67 175 304 113 75 873 914 834 900 1531 1309 1587 1376 1093 1315 757 420 506 349 123 130 2 3 10 13 30 55 30 0 20 37 22
47 190 225 416 1065 1042 845 777 901 1411 1196 1204 1310 1076 813 478 386 267 137 56 8 0 1 2 4 27 43 22 26 20 13 21
0 129 207 455 692 500 390 690 949 1200 995 921 942 986 439 344 438 108 9 4 0 3 7 11 29 17 41 12 35 26 14 44
1 93 327 583 642 471 91 600 792 1175 737 896 847 420 252 419 190 6 0 0 0 0 3 12 16 27 16 15 12 7 16 43
0 29 223 550 540 95 0 711 851 640 771 916 586 267 355 396 140 3 0 0 0 2 7 0 2 25 25 18 23 32 46 48
0 12 67 155 302 73 14 541 719 838 751 548 398 400 271 193 54 17 0 4 0 0 1 7 9 0 20 24 15 30 40 50
0 5 37 107 168 174 218 557 483 563 731 259 275 201 244 61 61 1 74 15 3 5 3 0 0 21 11 12 15 10 49 9
0 2 1 23 93 55 27 335 311 334 281 154 132 183 269 90 119 33 24 24 44 6 0 1 0 0 0 0 0 0 0 0
0 0 23 33 36 57 23 9 310 310 181 22 85 108 118 127 78 76 40 43 20 0 4 0 4 7 8 1 2 2 2 0
0 0 0 34 73 110 100 247 122 161 172 16 57 112 86 92 37 8 8 19 52 44 11 9 4 1 18 14 7 12 23 4
0 0 0 4 30 215 180 174 173 110 105 22 31 78 30 28 11 6 8 2 0 0 21 20 25 24 25 20 14 10 16 14

GFSFLT1_con_mucape_099.txt.gz
CAPE
0 0 0 0 0 0 221 2391 2368 2503 2443 2298 2208 1767 1889 1566 1704 1664 1540 1544 1348 1202 1067 946 739 573 447 240 84 54 67 45
0 0 0 0 0 0 32 2400 2330 2340 2466 2331 2216 1645 1519 1639 1291 1247 1345 1721 1470 1231 965 947 782 517 362 122 46 65 69 46
0 0 0 0 0 0 69 2428 2394 2252 2390 2116 1889 1419 1337 1383 1992 1704 1207 1899 1611 1640 1105 574 531 461 314 77 44 49 61 42
0 0 0 0 0 0 919 2440 2340 2297 2191 1902 1661 1393 1166 1195 1628 1650 1771 995 1188 1458 976 583 458 218 134 65 54 41 34 29
0 0 0 0 0 0 813 2436 2385 2304 1944 1627 1458 1226 1053 936 919 1129 1340 1397 1164 996 892 887 430 202 148 70 102 23 40 12
94 11 0 3 0 0 445 2286 2196 1987 1735 1569 1260 1160 1042 873 1297 1686 1320 1264 1154 858 752 572 423 146 165 60 11 10 17 18
149 117 43 13 0 0 0 2028 2139 1933 1588 1434 1244 1059 1108 905 1204 989 929 838 723 700 294 151 142 71 82 73 36 9 32 19
191 234 110 72 67 10 0 116 2013 1844 1553 1391 1279 1029 1162 1028 1023 847 634 418 265 187 249 232 100 84 23 26 77 26 47 13
23 237 144 172 594 23 30 1042 1667 1634 1497 1482 1381 1357 1380 1206 1155 969 672 466 177 189 74 26 39 23 29 26 24 43 33 25
12 188 175 797 739 530 421 598 1371 1565 1597 1422 1300 1545 1540 1563 1123 723 542 408 289 121 40 23 14 22 45 39 3 28 36 11
6 166 232 439 517 514 513 553 626 1079 1243 1175 1376 1448 1179 1073 919 748 467 187 150 112 67 76 0 12 25 3 26 16 33 33
8 162 195 250 271 284 95 132 398 780 1145 978 1067 1255 1141 797 621 306 163 159 34 17 9 4 5 11 2 17 7 25 35 1
4 87 117 217 101 75 198 170 515 776 932 1051 1112 852 705 686 269 174 70 13 7 0 0 3 4 8 24 39 11 20 13 32
0 8 84 87 160 98 1 71 364 573 797 994 1011 501 780 370 159 74 86 1 6 0 0 11 15 1 17 29 27 9 36 40
0 0 25 97 70 49 5 302 476 553 646 635 499 631 193 216 183 48 47 5 21 0 10 4 0 5 8 21 25 12 24 9
0 0 2 20 6 1 64 121 291 403 521 588 638 287 47 105 10 9 55 34 29 7 18 4 0 18 5 37 26 40 35 6
0 0 0 0 0 4 21 23 193 258 338 328 321 69 58 17 60 135 139 54 50 20 2 2 1 0 0 0 9 10 25 15
0 0 0 0 14 21 23 19 32 145 63 142 165 49 63 187 138 145 120 159 56 32 48 35 8 3 12 4 2 0 0 0
0 0 0 0 0 13 23 22 34 26 209 120 67 4 68 116 104 131 110 109 102 52 35 20 11 29 8 13 9 5 3 18

GFSFLT1_con_mucape_102.txt.gz
CAPE
0 0 0 0 0 0 847 1971 2264 2423 2402 2228 2000 1870 1893 1886 1726 1720 1583 1662 1509 1365 1325 1293 1197 1052 806 1066 1076 743 268 136
0 0 0 0 0 0 0 1605 2002 2298 2368 2111 1845 1565 1961 1986 2020 1874 1757 1655 1544 1457 1411 1304 1128 1001 583 705 905 629 198 95
0 0 0 0 0 0 0 1256 1857 2217 2168 2086 1680 1670 1725 1699 1884 1927 1817 1627 1505 1434 1267 1137 995 1055 1254 389 595 205 138 75
0 0 0 0 0 0 0 607 1810 2103 2113 2012 1876 1710 1458 1587 1439 1418 1546 1712 1628 1402 1283 1452 1182 822 451 573 319 275 29 27
0 6 10 1 0 0 0 271 1775 2032 2150 1986 1840 1544 1477 1507 1363 1031 955 1051 946 1715 1351 1348 802 631 429 233 208 92 80 33
89 164 121 60 16 0 429 1180 1916 2023 2107 1980 1960 1608 1322 1377 1285 1073 1119 1138 1154 1208 825 1025 775 471 533 338 126 72 38 55
209 194 151 197 146 45 201 2200 2136 1993 2003 2090 2026 1589 1468 1248 1097 983 1006 997 1125 1201 1111 1144 807 726 475 255 128 66 38 35
352 374 362 401 193 92 46 2168 1984 1891 1959 1965 1890 1539 1313 1069 1016 870 679 510 809 802 810 772 667 572 328 230 51 60 35 38
160 275 428 414 261 151 98 1517 1905 1836 1715 1974 1605 1332 1131 1048 821 574 511 604 581 444 467 314 579 365 140 96 33 29 38 37
68 232 382 437 284 163 188 595 1855 1564 1522 1447 1298 1248 1203 1039 892 765 916 944 763 511 321 195 182 196 131 37 25 26 25 26
53 177 416 333 304 248 434 538 561 1015 1198 1114 1152 1277 1080 1105 1235 1119 1330 817 565 365 188 130 159 83 37 37 16 42 36 6
1 175 224 256 180 317 375 427 503 604 792 913 1060 1182 1255 1377 1525 762 938 625 435 327 323 112 64 55 195 41 49 29 38 22
0 32 157 137 197 196 129 118 189 182 349 395 643 871 1290 914 617 631 509 334 142 133 45 29 4 4 10 14 15 7 24 37
0 0 97 164 123 113 65 95 251 278 529 506 531 646 662 824 932 420 309 43 6 0 2 12 7 0 6 17 8 10 42 9
0 0 4 91 88 28 77 5 43 232 257 478 510 522 471 651 228 97 37 4 0 0 13 8 0 0 1 6 23 43 40 15
0 0 0 4 16 56 15 23 67 175 90 232 135 214 356 317 108 17 18 5 12 18 12 2 7 0 0 15 4 27 52 33
0 0 0 0 6 11 13 11 18 106 123 133 203 425 302 17 15 19 20 11 3 5 28 6 0 0 0 5 18 23 34 17
0 0 0 0 0 18 21 17 24 53 66 85 134 95 111 9 0 17 37 29 14 12 21 10 5 9 2 0 0 4 18 24
0 0 0 0 0 0 11 6 18 27 53 76 83 79 125 56 58 54 23 30 37 41 64 61 43 8 6 12 3 4 0 3

GFSFLT1_con_mucape_105.txt.gz
CAPE
0 0 0 0 0 0 0 1458 2464 2566 2494 2302 2228 2021 1593 1492 1285 1109 1161 1338 1628 1499 1185 993 930 981 969 919 934 707 764 952
0 0 0 0 0 0 0 283 2208 2336 2417 2213 2201 2140 1887 1753 1631 1287 1249 1301 1605 1653 1378 1176 1055 1085 1036 979 885 637 557 696
0 0 0 0 0 0 0 87 1633 2147 2221 2226 2005 1948 1933 1690 1570 1583 1490 1402 1462 1666 1590 1449 1298 1226 1128 874 672 411 358 341
0 0 0 0 0 0 0 9 794 1890 2149 2079 2047 1729 1615 1653 1589 1734 1685 1639 1543 1613 1668 1427 1244 1599 1012 638 408 271 191 161
0 0 19 16 4 0 0 0 663 1611 2064 1923 1713 1545 1387 1570 1533 1680 1784 1717 1757 1542 1538 1392 1280 1247 1300 637 434 232 174 128
26 44 87 171 255 172 43 0 244 1348 1987 1898 1644 1498 1315 1314 1356 1493 1647 1628 1553 1389 1629 1365 1267 921 1065 807 531 296 172 144
66 161 295 393 335 204 156 574 743 1646 2049 1914 1605 1532 1418 1394 1258 1114 1267 1303 1303 1203 1169 1066 1000 1100 1037 596 501 576 214 197
223 253 372 362 426 306 276 1716 1996 1927 2098 1895 1656 1501 1379 1365 1256 1219 1061 979 949 916 738 1036 833 774 824 755 618 781 497 149
112 115 214 267 513 471 302 985 2024 2080 1976 1961 1671 1534 1417 1467 1237 1146 878 994 1310 928 524 782 885 793 587 699 414 363 252 115
36 76 87 243 364 385 361 528 1318 1644 1880 2150 2020 1529 1484 1522 1132 915 728 848 851 766 364 374 596 902 621 674 307 252 131 70
2 44 64 147 137 335 414 339 893 1231 1617 1905 1817 1412 1260 966 918 810 853 534 464 533 634 454 369 279 311 188 151 104 63 50
0 30 107 219 263 312 268 347 284 506 1181 1618 1286 908 814 837 802 834 675 701 775 1053 807 310 269 124 165 148 135 98 77 48
0 9 48 246 178 211 298 256 319 217 311 387 697 684 743 742 626 756 942 751 638 413 430 243 345 204 171 93 76 54 101 38
0 0 1 86 92 183 148 188 107 144 164 116 204 471 518 499 664 574 464 443 177 271 112 39 45 5 11 22 37 23 26 27
0 0 0 2 105 124 124 81 79 93 184 269 289 210 326 379 296 349 415 234 224 26 23 4 5 3 0 0 0 2 8 0
0 0 0 1 6 86 67 31 116 82 205 102 139 121 136 157 199 213 234 63 6 23 28 0 1 0 0 0 0 0 9 5
0 0 0 0 2 17 10 18 46 55 70 44 76 107 74 65 148 71 0 1 12 17 2 4 8 3 0 0 0 0 5 7
0 0 0 0 0 4 29 16 17 2 18 46 40 50 49 47 102 6 0 0 0 3 9 3 3 0 0 8 3 1 1 25
0 0 0 0 0 0 1 0 11 14 20 47 71 56 69 48 71 48 2 0 0 0 11 13 22 25 24 13 11 3 1 0

GFSFLT1_con_mucape_108.txt.gz
CAPE
0 0 0 0 0 0 0 12 1576 1838 1920 2066 1923 1599 1458 1420 1287 1140 1193 1528 2032 2193 1506 1495 1363 1502 1078 1006 935 848 653 602
0 0 0 0 0 0 0 0 34 1798 1931 1773 1780 1749 1834 1652 1430 1052 1079 1241 1743 1825 1703 1341 1289 1222 1263 860 911 841 754 563
0 0 0 0 0 0 0 0 0 1172 1459 1867 1774 1763 1770 1485 1401 1334 976 1003 1184 1522 1588 1165 1204 1051 929 822 679 629 934 443
0 0 0 0 0 0 0 0 0 434 1397 1992 1913 1973 1673 1574 1491 1580 1466 1173 1058 1184 990 1082 1145 1030 986 863 725 593 873 317
0 0 0 0 0 0 0 2 0 459 1680 1923 1715 1621 1561 1260 1605 1702 1555 1430 1163 1044 1051 1087 1035 1117 1222 924 703 1101 590 301
19 0 0 0 4 63 40 17 79 0 1510 1757 1866 1722 1512 1288 1372 1592 1627 1618 1495 1480 1421 1347 1272 1303 1047 1113 901 1075 361 204
86 79 1 41 124 250 179 151 402 1 1394 1868 1889 1662 1493 1351 1335 1208 1932 1593 1487 1566 1625 1557 1437 1203 1165 1047 789 511 564 329
154 120 43 297 389 455 377 613 1045 603 1429 1911 1913 1631 1465 1311 1262 1254 1760 1863 1622 1205 1588 1640 1250 1123 1162 1060 610 757 602 475
23 79 145 347 401 579 504 985 1454 1563 1865 1870 1922 1699 1553 1374 1203 1028 1402 1352 1354 1062 1190 1293 1237 1102 1049 686 715 943 564 468
13 4 87 237 175 199 337 592 964 1500 2187 1953 1921 1886 1518 1452 1328 1220 1107 1066 1061 897 810 1441 965 758 600 637 554 531 500 527
0 4 4 62 71 124 158 261 517 823 1374 1672 1731 1734 1488 1380 1354 1304 1305 937 713 625 647 1105 1032 945 726 615 565 506 429 390
2 2 0 11 95 79 144 233 427 543 871 1393 1563 1547 1481 1556 1281 1277 881 602 664 564 712 773 598 532 505 454 327 246 203 174
0 0 8 36 68 263 322 268 189 409 559 942 1177 1385 1608 1476 1084 779 669 693 580 514 473 545 535 548 205 218 122 159 123 92
0 0 11 74 121 129 143 176 171 137 233 355 439 724 1060 757 633 530 499 447 521 595 410 327 308 352 232 53 33 18 66 79
0 2 6 6 90 100 151 132 108 123 162 132 110 160 164 242 272 252 308 292 135 131 240 258 97 58 33 6 22 0 0 0
1 1 2 1 4 21 104 73 130 116 158 130 100 170 224 234 216 92 60 58 68 95 90 46 23 16 10 2 0 0 1 0
2 0 0 0 3 35 27 42 75 55 126 108 123 4 74 75 29 30 2 38 72 15 16 11 1 5 6 0 0 0 0 0
0 0 0 1 0 1 71 34 33 31 52 55 57 5 83 33 21 17 28 5 6 4 1 0 2 4 7 2 0 1 8 0
0 0 0 0 0 0 0 0 13 31 16 13 2 0 0 38 18 34 50 7 0 0 0 0 0 14 10 10 11 24 23 6

GFSFLT1_con_mucape_111.txt.gz
CAPE
0 0 0 0 0 0 0 0 0 1469 2033 2281 2027 1922 1862 1826 1728 1477 1436 1477 1157 1803 1610 1807 1890 1327 1315 1262 1211 1058 915 866
0 0 0 0 0 0 0 0 0 123 1345 1759 1638 1378 1747 1761 1484 1510 1354 1243 1209 1662 1609 1506 2067 1342 1173 1139 1111 1136 1065 806
0 0 0 0 0 0 0 0 0 0 587 1523 1716 1613 1571 1760 1602 1333 1227 1198 1256 1236 1551 1099 1846 1494 1051 909 1066 957 990 804
0 0 0 0 0 0 0 0 0 0 0 890 2009 2103 2166 1504 1365 1420 1463 1461 1262 1178 1296 1330 1695 1568 1009 983 911 838 693 521
0 0 0 0 0 0 0 0 0 0 0 93 1733 1766 1554 1406 1604 1617 1435 1435 1489 1042 1117 1530 1482 1379 957 754 721 779 525 387
0 0 0 0 0 0 0 0 0 0 0 110 1844 2052 1983 1902 2153 2051 1551 1424 1765 1160 1128 1093 1400 1189 746 768 709 721 658 401
0 0 0 0 5 5 3 0 14 0 144 154 1715 2196 2060 2175 2203 1816 1829 1488 1446 1408 1203 1096 1291 1211 679 709 825 896 643 461
0 0 0 0 0 29 143 94 141 143 375 304 1677 2261 2422 2315 2107 1974 1547 1501 1208 1594 1304 1075 1187 1289 1078 1020 1045 867 707 528
0 0 0 5 45 155 237 229 257 359 558 494 1519 1641 1764 2161 2092 1949 1762 1471 1368 1362 1305 1321 1019 1078 1142 1097 1071 846 650 572
0 0 0 4 4 80 199 351 357 640 706 851 1295 1697 1684 1908 1917 1994 1942 1593 1124 1214 1435 915 1073 854 1080 1354 1047 841 672 741
0 0 0 0 0 122 123 153 238 425 688 1261 1464 1872 1497 1528 1683 1703 1655 1494 944 1506 1530 973 707 826 1525 1169 777 606 429 380
0 0 0 4 0 26 41 98 102 142 421 912 1628 1687 1673 1341 1353 1582 1452 1236 1035 1499 1099 881 686 910 1298 936 553 393 454 433
0 0 0 4 0 2 42 133 151 79 118 631 1165 1448 1365 1404 1239 1387 1986 1351 1362 1225 878 513 626 904 916 434 273 350 325 269
0 0 10 0 56 95 92 100 37 113 145 402 808 915 981 1066 1096 1408 1226 1149 884 780 683 576 428 380 374 324 343 199 107 73
10 15 5 12 37 42 31 127 6 28 96 145 274 394 422 505 576 687 657 514 603 370 314 312 252 191 93 143 143 100 63 37
2 1 3 9 6 12 17 57 64 16 9 71 110 134 129 180 236 279 235 251 207 172 89 34 35 72 102 106 7 7 7 0
0 0 2 7 8 12 0 4 30 37 8 104 97 135 197 226 228 178 149 136 67 49 5 1 26 83 8 0 0 2 0 0
0 0 0 0 0 0 10 1 3 28 18 0 17 45 3 70 95 47 30 1 0 0 4 46 12 9 0 1 0 0 0 0
0 0 0 0 0 0 0 0 2 0 2 6 0 1 0 0 0 0 0 1 0 28 42 0 0 6 0 1 5 5 4 9

GFSFLT1_con_mucape_114.txt.gz
CAPE
0 0 0 0 0 0 0 0 0 0 718 1872 1937 2327 2551 2321 2291 2373 2554 2903 2801 2965 2313 2348 2242 1924 2095 2204 2127 1866 1893 1596
0 0 0 0 0 0 0 0 0 0 2 418 1027 1966 2146 2408 2536 2476 2492 2808 2845 2713 2137 2142 1648 1507 1875 1798 1770 1897 2024 1818
0 0 0 0 0 0 0 0 0 0 0 0 717 1271 1652 1799 2369 2797 2635 2448 2498 2679 2377 2082 1607 1458 1664 1665 1345 1291 1231 1342
0 0 0 0 0 0 0 0 0 0 0 0 0 884 1395 1691 2279 2877 2917 2396 2394 2727 2262 1877 1488 1464 1079 1783 1417 1117 1175 953
0 0 0 0 0 0 0 0 0 0 0 0 0 22 954 1568 1771 2152 2554 2809 2464 2280 2097 1896 1498 1377 1110 1403 1427 1342 1165 875
0 0 0 0 0 0 0 0 0 0 0 6 5 5 1126 1322 2036 1943 2164 2276 1977 1910 1872 1934 1485 1509 1134 1202 1548 1305 1114 937
0 0 0 0 0 0 0 0 0 0 0 0 15 199 482 1442 1657 2146 2386 2306 1652 1576 1512 1685 1525 1371 1116 1024 1375 1176 1165 957
0 0 0 0 0 0 0 0 0 0 0 7 0 76 586 1943 1679 2364 2392 1972 1530 1481 1681 1811 1854 1319 1183 916 1119 1201 1136 778
0 0 0 0 0 0 0 1 0 43 82 54 69 95 922 1800 2039 2048 2305 2034 1627 1779 1804 1651 1752 1295 1180 1118 1115 1095 847 967
0 0 0 0 0 0 0 0 73 179 144 164 260 395 1343 2056 2254 2592 2484 2284 1584 1764 1817 1753 1430 1761 1101 979 923 746 747 945
0 0 0 0 0 0 0 1 148 238 254 364 471 630 1179 2176 2182 2217 2153 2423 2159 1931 1574 1581 1697 1599 1211 857 796 819 1058 1177
0 0 0 0 0 0 0 0 147 109 122 248 584 915 1647 2256 2077 2043 2266 2259 1864 1763 1873 1310 1343 1709 1475 1035 802 847 901 1190
0 0 0 0 0 0 0 22 25 108 94 161 711 1504 1532 1789 1807 1881 1962 1727 1695 1624 1459 924 1299 1744 1340 1284 741 1137 1011 558
1 0 0 0 8 0 0 0 2 105 124 112 292 1011 1205 1273 1174 1290 1375 1276 1113 1310 1247 1161 1087 892 889 442 586 827 463 343
4 0 8 13 7 2 5 16 0 15 190 77 234 584 1080 1066 1058 987 1218 938 951 782 919 990 470 462 435 479 423 353 371 319
2 13 11 12 2 10 5 3 0 0 41 103 200 354 467 441 675 516 599 507 506 559 666 448 483 365 331 346 317 245 218 223
0 0 1 1 0 1 3 0 25 0 1 0 0 24 152 226 336 446 527 353 293 350 221 204 214 161 201 145 84 50 135 200
0 0 0 0 0 0 0 0 0 0 3 0 0 0 0 129 105 51 138 146 198 192 152 137 72 75 115 23 13 30 53 14
0 0 0 0 0 0 0 2 1 0 0 4 0 0 0 0 37 4 34 3 98 132 56 12 0 0 0 31 24 19 15 1

GFSFLT1_con_mucape_117.txt.gz
CAPE
0 0 0 0 0 0 0 0 0 0 0 79 997 1932 2522 2923 2850 2550 2824 3463 3365 3232 2724 2889 2795 2962 3075 3059 2725 2457 2255 2153
0 0 0 0 0 0 0 0 0 0 0 0 28 1726 2151 2723 2842 3081 2670 3117 3639 3445 3256 3283 2958 2627 2542 2862 2854 2725 2311 2398
0 0 0 0 0 0 0 0 0 0 0 0 0 6 1150 2272 2677 2866 3300 3430 3579 3685 3612 3331 3288 2558 1960 2264 2293 2681 2851 2767
0 0 0 0 0 0 0 0 0 0 1 0 0 16 7 1520 2343 2586 2998 3395 3607 3733 3706 3466 3281 2871 2504 2089 1995 2117 1920 2488
0 0 0 0 0 0 0 0 0 0 2 1 0 0 0 443 2095 2392 2405 3257 3482 3752 3819 3675 3328 2804 2337 1849 1648 1634 1782 1564
0 0 0 0 0 0 0 0 0 0 0 0 6 3 2 93 263 2328 2482 2879 3082 3572 3621 3550 3257 2749 2431 2107 1624 1518 1542 1537
0 0 0 0 0 0 0 0 0 0 0 0 0 0 6 16 302 1102 1993 2406 2679 3433 3226 3151 2824 2431 2396 2347 1838 1414 1469 1215
0 0 0 0 0 0 0 0 0 0 0 0 0 0 0 8 13 601 1830 2224 2514 2812 2765 2595 2607 2382 2148 2187 1530 1348 1443 1154
0 0 0 0 0 0 0 0 0 0 0 0 0 0 0 6 27 625 785 2215 2726 2829 2626 2030 2364 2371 1964 1740 1589 1360 1362 1205
0 0 0 0 0 0 0 0 0 0 0 0 0 10 2 0 67 1032 1478 2052 2724 2676 2477 1711 1595 1803 1980 1615 1275 1370 1323 1320
0 0 0 0 0 0 0 0 0 0 0 13 28 60 52 35 344 1415 2051 2262 2538 2323 2258 1650 1661 1550 1633 1880 1571 1506 1412 1404
0 0 0 0 0 0 0 0 0 0 11 29 90 241 132 172 674 1798 2390 2277 1960 2094 2100 1612 1480 1472 1645 1727 1601 1359 1660 1570
0 0 0 0 0 0 0 0 0 0 2 25 135 157 293 479 1143 1475 2074 1712 1818 1999 1910 1811 1629 1464 1399 1639 1537 1669 990 1264
3 0 0 0 0 2 0 0 0 0 20 5 61 320 634 970 764 552 955 1055 1077 1186 1168 1012 1214 1125 1261 998 1071 1009 1268 761
6 6 0 0 0 0 0 0 0 0 11 18 52 134 390 841 916 717 850 1067 1191 1025 1124 1188 1306 1048 1008 1125 1071 1184 646 562
9 8 0 0 0 0 0 0 0 0 0 7 26 79 334 478 634 704 929 946 994 1006 898 879 963 945 1000 848 848 609 543 431
0 0 0 0 0 0 0 0 0 0 0 0 0 0 18 140 227 329 573 646 643 636 502 561 618 491 427 452 373 344 285 193
0 0 0 0 0 0 0 0 0 0 0 0 0 0 0 33 127 213 212 260 343 390 466 349 431 374 330 257 197 174 185 159
0 0 0 0 0 0 0 0 0 0 0 0 0 0 0 0 0 28 109 154 21 257 279 266 199 174 135 122 94 12 23 5

GFSFLT1_con_mucape_120.txt.gz
CAPE
0 0 0 0 0 0 0 0 0 0 0 0 0 375 1977 2185 2224 2015 2381 2630 2313 2342 2809 2463 2208 2571 2754 2473 2430 2369 2297 1972
0 0 0 0 0 0 0 0 0 0 0 0 0 0 236 1985 2306 2323 2249 2359 2557 2345 2497 2728 2365 2041 2483 2676 2461 2286 2190 2062
0 0 0 0 0 0 0 0 0 0 0 0 0 0 0 136 1544 2304 2426 2327 2564 2674 2525 2441 2501 2060 2114 2814 2644 2301 2193 2128
0 0 0 0 0 0 0 0 0 0 0 0 0 0 0 0 570 1250 2359 2433 2293 2869 2693 2384 2474 2385 2105 2287 2516 2375 2001 2108
0 0 0 0 0 0 0 0 0 0 0 0 0 0 0 0 1 473 1501 2289 2432 2612 2826 2800 2613 2642 2357 2205 2046 1915 2111 2078
0 0 0 0 0 0 0 0 0 0 0 0 0 0 0 0 0 0 159 1284 2084 2292 2259 2539 2794 2444 2479 2045 1776 1670 1824 1690
0 0 0 0 0 0 0 0 0 0 0 0 0 0 0 0 0 0 4 363 1093 1928 1944 2239 2605 2566 1726 898 1736 1611 1617 1524
0 0 0 0 0 0 0 0 0 0 0 0 0 0 0 0 0 0 0 22 308 1185 1677 2019 2464 2624 2117 2006 1797 1582 1477 1371
0 0 0 0 0 0 0 0 0 0 0 0 0 0 0 0 0 0 0 0 12 676 1228 1412 1998 2188 2173 2045 1984 1660 1732 1873
0 0 0 0 0 0 0 0 0 0 0 0 0 0 0 0 0 0 0 0 1 232 1130 1239 1513 2049 2095 2119 1887 1959 1895 1687
0 0 0 0 0 0 0 0 0 0 0 0 0 0 0 0 0 0 0 0 3 442 935 1131 1007 1542 1825 1675 1580 1462 1633 1773
0 0 0 0 0 0 0 0 0 0 0 0 2 0 0 1 0 0 0 0 5 581 947 733 3 997 1305 1376 1485 1298 1471 1510
0 0 0 0 0 0 0 0 0 0 0 0 0 0 2 27 92 2 82 0 137 961 1093 798 205 988 1201 1341 1191 1198 1501 1520
0 0 0 0 0 0 0 0 0 0 1 0 0 4 38 92 41 114 422 504 475 649 500 497 790 982 1173 1204 1193 1161 1060 1376
0 0 0 0 0 0 0 0 0 0 0 0 12 19 105 192 272 139 136 161 156 126 267 294 411 521 846 1048 994 1129 1299 1096
0 0 0 0 0 0 0 0 0 0 0 0 0 36 67 134 188 284 79 87 19 66 144 174 238 337 613 723 991 828 872 857
0 0 0 0 0 0 0 0 0 0 0 0 0 0 0 52 141 236 240 23 0 157 358 228 241 501 469 408 597 677 695 626
0 0 0 0 0 0 0 0 0 0 0 0 0 0 0 5 37 85 145 159 202 276 304 308 281 312 283 266 371 396 461 498
0 0 0 0 0 0 0 0 0 0 0 0 0 0 0 0 0 0 7 30 73 146 135 229 224 278 86 12 9 26 211 171

GFSFLT1_con_mucape_123.txt.gz
CAPE
0 0 0 0 0 0 0 0 0 0 0 0 0 0 0 122 698 1006 1201 1412 1743 1764 2408 2424 2366 2376 2308 2090 1968 1892 1839 1712
0 0 0 0 0 0 0 0 0 0 0 0 0 0 0 60 190 486 1073 1184 1452 1894 1762 2311 2266 1983 2290 2050 2002 1787 1860 1867
0 0 0 0 0 0 0 0 0 0 0 0 0 0 0 0 127 105 769 914 1445 1621 1355 1480 2235 2002 1751 2184 2038 1867 1785 1913
0 0 0 0 0 0 0 0 0 0 0 0 0 0 0 0 0 2 476 561 685 1475 1400 1330 1647 2093 2100 1561 2202 2149 1775 1803
0 0 0 0 0 0 0 0 0 0 0 0 0 0 0 0 0 0 27 319 562 570 1360 1545 1364 1640 2111 1790 1837 2244 1827 1499
0 0 0 0 0 0 0 0 0 0 0 0 0 0 0 0 0 0 0 54 294 671 782 1218 1670 1514 1928 1631 1544 1905 1967 1418
0 0 0 0 0 0 0 0 0 0 0 0 0 0 0 0 0 0 0 0 225 399 998 811 1154 1633 1658 1746 1614 1309 1354 1190
0 0 0 0 0 0 0 0 0 0 0 0 0 0 0 0 0 0 0 0 0 190 206 535 976 1128 1577 1752 1537 1006 524 765
0 0 0 0 0 0 0 0 0 0 0 0 0 0 0 0 0 0 0 0 0 0 56 270 609 879 1179 1402 1362 1024 539 97
0 0 0 0 0 0 0 0 0 0 0 0 0 0 0 0 0 0 0 0 0 0 0 0 150 696 864 999 1172 1026 706 362
0 0 0 0 0 0 0 0 0 0 0 0 0 0 0 0 0 0 0 0 0 0 0 0 0 42 622 877 816 777 783 843
0 0 0 0 0 0 0 0 0 0 0 0 0 0 0 0 0 0 0 0 0 0 0 0 0 23 768 954 795 647 667 958
0 0 0 0 0 0 0 0 0 0 0 0 0 0 0 0 0 2 0 0 2 1 0 0 9 45 390 417 327 42 1 576
0 0 0 0 0 0 0 0 0 0 0 0 0 3 2 6 6 7 2 2 13 3 2 0 43 778 138 1 0 0 594 980
0 0 0 0 0 0 0 0 0 0 2 0 0 0 2 17 26 39 3 8 25 70 57 164 244 297 346 99 75 385 498 617
0 0 0 0 0 0 0 0 0 0 0 0 0 0 0 6 32 27 42 11 38 47 72 75 43 37 143 221 138 345 227 271
0 0 0 0 0 0 0 0 0 0 0 0 0 0 0 0 2 0 40 58 20 21 22 1 39 78 8 51 216 134 293 313
0 0 0 0 0 0 0 0 0 0 0 0 0 0 0 0 0 0 0 0 0 22 0 0 0 0 0 0 0 0 95 269
0 0 0 0 0 0 0 0 0 0 0 0 0 0 0 0 0 0 0 0 0 0 0 0 0 0 0 0 0 0 0 9

GFSFLT1_con_mucape_129.txt.gz
CAPE
0 0 0 0 0 0 0 0 0 0 0 0 0 0 0 0 0 0 0 0 1 0 26 124 11 81 678 982 1142 1195 1224 1379
0 0 0 0 0 0 0 0 0 0 0 0 0 0 0 0 0 0 0 0 0 0 0 0 18 62 179 446 949 1205 1069 1043
0 0 0 0 0 0 0 0 0 0 0 0 0 0 0 0 0 0 0 0 0 0 0 0 4 92 88 141 512 600 850 1003
0 0 0 0 0 0 0 0 0 0 0 0 0 0 0 0 0 0 0 0 0 0 0 0 0 23 99 4 131 554 477 783
0 0 0 0 0 0 0 0 0 0 0 0 0 0 0 0 0 0 0 0 0 0 0 0 0 7 70 31 64 63 147 388
0 0 0 0 0 0 0 0 0 0 0 0 0 0 0 0 0 0 0 0 0 0 0 0 0 0 30 110 20 12 23 225
0 0 0 0 0 0 0 0 0 0 0 0 0 0 0 0 0 0 0 0 0 0 0 0 0 0 3 40 210 89 105 232
0 0 0 0 0 0 0 0 0 0 0 0 0 0 0 0 0 0 0 0 0 0 0 0 0 0 0 3 141 211 274 365
0 0 0 0 0 0 0 0 0 0 0 0 0 0 0 0 0 0 0 0 0 0 0 0 0 0 0 0 0 0 64 126
0 0 0 0 0 0 0 0 0 0 0 0 0 0 0 0 0 0 0 0 0 0 0 0 0 0 0 0 0 0 12 6
0 0 0 0 0 0 0 0 0 0 0 0 0 0 0 0 0 0 0 0 0 0 0 0 0 0 0 0 0 0 0 0
0 0 0 0 0 0 0 0 0 0 0 0 0 0 0 0 0 0 0 0 0 0 0 0 0 0 0 0 0 0 0 0
0 0 0 0 0 0 0 0 0 0 0 0 0 0 0 7 14 16 0 0 0 0 0 0 0 0 0 0 0 3 5 26
0 0 0 0 0 0 0 0 0 0 0 0 0 0 0 5 13 14 0 0 0 0 0 0 1 4 1 0 0 5 5 4
0 0 0 0 0 0 0 0 0 0 0 0 0 0 0 0 0 0 2 0 0 0 0 0 0 2 2 2 3 11 9 7
0 0 0 0 0 0 0 0 0 0 0 0 0 0 0 0 0 0 0 0 0 0 0 0 0 1 8 1 13 14 18 15
0 0 0 0 0 0 0 0 0 0 0 0 0 0 0 0 0 3 0 0 0 0 0 0 0 0 2 4 3 15 9 103
0 0 0 0 0 0 0 0 0 0 0 0 0 0 0 0 0 0 0 0 0 0 0 0 0 0 0 0 29 28 5 10
0 0 0 0 0 0 0 0 0 0 0 0 0 0 0 0 0 0 0 0 0 0 0 0 0 0 0 0 0 0 1 1

GFSFLT1_con_mucape_132.txt.gz
CAPE
0 0 0 0 0 0 0 0 0 0 0 0 0 0 0 0 0 0 0 0 0 0 1 0 0 0 0 0 67 425 624 750
0 0 0 0 0 0 0 0 0 0 0 0 0 0 0 0 0 0 0 0 0 0 0 0 0 0 0 2 0 137 89 375
0 0 0 0 0 0 0 0 0 0 0 0 0 0 0 0 0 0 0 0 0 0 0 0 0 0 0 0 8 3 4 102
0 0 0 0 0 0 0 0 0 0 0 0 0 0 0 0 0 0 0 0 0 0 0 0 0 0 0 0 32 25 1 70
0 0 0 0 0 0 0 0 0 0 0 0 0 0 0 0 0 0 0 0 0 0 0 0 0 0 0 0 0 141 91 1
0 0 0 0 0 0 0 0 0 0 0 0 0 0 0 0 0 0 0 0 0 0 0 0 0 0 0 0 0 16 65 2
0 0 0 0 0 0 0 0 0 0 0 0 0 0 0 0 0 0 0 0 0 0 0 0 0 0 0 0 11 1 28 0
0 0 0 0 0 0 0 0 0 0 0 0 0 0 0 0 0 0 0 0 0 0 0 0 0 0 0 0 0 0 7 31
0 0 0 0 0 0 0 0 0 0 0 0 0 0 0 0 0 0 0 0 0 0 0 0 0 0 0 0 0 0 3 14
0 0 0 0 0 0 0 0 0 0 0 0 0 0 0 0 0 0 0 0 0 0 0 0 0 0 0 0 0 0 0 4
0 0 0 0 0 0 0 0 0 0 0 0 0 0 0 0 0 0 0 3 0 0 0 0 0 0 0 0 0 0 0 2
0 0 0 0 0 0 0 0 0 0 0 0 0 0 0 0 0 1 6 10 8 0 0 0 0 0 0 0 0 0 1 0
0 0 0 0 0 0 0 0 0 0 0 0 0 0 0 0 0 1 5 4 7 5 0 0 2 0 0 0 0 2 1 3
0 0 0 0 0 0 0 0 0 0 0 0 0 0 0 0 0 0 0 4 2 0 0 0 5 2 0 2 0 0 1 6
0 0 0 0 0 0 0 0 0 0 0 0 0 0 0 0 0 0 0 0 0 0 0 0 0 0 4 6 1 3 5 1
0 0 0 0 0 0 0 0 0 0 0 0 0 0 0 0 3 0 0 1 0 0 0 2 2 7 0 0 6 6 13 18
0 0 0 0 0 0 0 0 0 0 0 0 0 0 0 0 0 0 0 0 0 0 0 0 0 0 0 2 5 8 8 6
0 0 0 0 0 0 0 0 0 0 0 0 0 0 0 0 0 0 0 0 0 0 0 0 0 0 0 0 0 0 3 14
0 0 0 0 0 0 0 0 0 0 0 0 0 0 0 0 0 0 0 0 0 0 0 0 0 0 0 0 0 0 0 0

GFSFLT1_con_mucape_135.txt.gz
CAPE
0 0 0 0 0 0 0 0 0 0 0 0 0 0 0 0 0 0 0 0 0 0 0 0 0 0 5 2 0 0 0 14
0 0 0 0 0 0 0 0 0 0 0 0 0 0 0 0 0 0 0 0 0 0 0 0 0 0 0 1 1 12 7 4
0 0 0 0 0 0 0 0 0 0 0 0 0 0 0 0 0 0 0 0 0 0 0 0 0 0 0 0 2 80 130 323
0 0 0 0 0 0 0 0 0 0 0 0 0 0 0 0 0 0 0 0 0 0 0 0 0 0 0 0 0 3 30 232
0 0 0 0 0 0 0 0 0 0 0 0 0 0 0 0 0 0 0 0 0 0 0 0 0 0 0 0 0 0 2 43
0 0 0 0 0 0 0 0 0 0 0 0 0 0 0 0 0 0 0 0 0 0 0 0 0 0 0 0 0 0 4 4
0 0 0 0 0 0 0 0 0 0 0 0 0 0 0 0 0 0 0 0 0 0 0 0 0 0 0 0 0 0 0 4
0 0 0 0 0 0 0 0 0 0 0 0 0 0 0 0 0 0 0 0 0 0 0 0 0 0 0 0 0 0 0 0
0 0 0 0 0 0 0 0 0 0 0 0 0 0 0 0 0 0 0 0 0 0 0 0 0 0 0 0 0 0 0 0
0 0 0 0 0 0 0 0 0 0 0 0 0 0 0 0 0 0 0 0 0 1 0 0 0 0 0 0 0 0 0 0
0 0 0 0 0 0 0 0 0 0 0 0 0 0 0 0 0 0 0 3 5 9 4 0 0 0 0 0 0 0 0 0
0 0 0 0 0 0 0 0 0 0 0 0 0 0 0 0 0 0 1 3 4 6 5 4 0 0 0 0 0 0 0 0
0 0 0 0 0 0 0 0 0 0 0 0 0 0 0 0 0 0 0 0 0 4 5 3 3 0 0 0 0 0 0 2
0 0 0 0 0 0 0 0 0 0 0 0 0 0 0 0 0 2 0 0 0 0 5 10 11 9 5 3 4 6 3 6
0 0 0 0 0 0 0 0 0 0 0 0 0 0 0 0 0 0 0 4 2 0 0 0 3 5 7 5 2 5 4 3
0 0 0 0 0 0 0 0 0 0 0 0 0 0 0 0 0 0 0 0 0 0 0 0 0 0 0 0 0 7 14 7
0 0 0 0 0 0 0 0 0 0 0 0 0 0 0 0 0 0 0 0 0 0 0 0 0 0 0 0 0 0 0 9
0 0 0 0 0 0 0 0 0 0 0 0 0 0 0 0 0 0 0 0 0 0 0 0 0 0 0 0 0 0 0 0
0 0 0 0 0 0 0 0 0 0 0 0 0 0 0 0 0 0 0 0 0 0 0 0 0 0 0 0 0 0 0 0

GFSFLT1_con_mucape_138.txt.gz
CAPE
0 0 0 0 0 0 0 0 0 0 0 0 0 0 0 0 0 0 0 0 0 0 0 0 0 0 0 0 12 101 86 7
0 0 0 0 0 0 0 0 0 0 0 0 0 0 0 0 0 0 0 0 0 0 0 0 0 0 0 0 0 4 55 127
0 0 0 0 0 0 0 0 0 0 0 0 0 0 0 0 0 0 0 0 0 0 0 0 0 0 0 0 2 0 0 160
0 0 0 0 0 0 0 0 0 0 0 0 0 0 0 0 0 0 0 0 0 0 0 0 0 0 0 0 0 4 0 49
0 0 0 0 0 0 0 0 0 0 0 0 0 0 0 0 0 0 0 0 0 0 0 0 0 0 0 0 0 0 2 0
0 0 0 0 0 0 0 0 0 0 0 0 0 0 0 0 0 0 0 0 0 0 0 0 0 0 0 0 0 0 0 2
0 0 0 0 0 0 0 0 0 0 0 0 0 0 0 0 0 0 0 0 0 0 0 0 0 0 0 0 0 0 0 0
0 0 0 0 0 0 0 0 0 0 0 0 0 0 0 0 0 0 0 0 0 0 0 0 0 0 0 0 0 0 0 0
0 0 0 0 0 0 0 0 0 0 0 0 0 0 0 0 0 0 0 0 0 0 0 0 0 0 0 0 0 0 0 0
0 0 0 0 0 0 0 0 0 0 0 0 0 0 0 0 0 0 0 0 0 0 1 2 1 0 0 0 0 0 0 0
0 0 0 0 0 0 0 0 0 0 0 0 0 0 0 0 0 0 0 0 5 4 3 7 7 0 2 0 0 0 0 0
0 0 0 0 0 0 0 0 0 0 0 0 0 0 0 0 0 0 0 0 0 2 3 2 3 5 2 1 0 0 0 0
0 0 0 0 0 0 0 0 0 0 0 0 0 0 0 1 0 0 0 0 0 0 6 9 6 11 10 4 0 0 0 0
0 0 0 0 0 0 0 0 0 0 0 0 0 0 0 0 0 0 0 0 0 0 0 1 6 6 9 10 8 4 14 9
0 0 0 0 0 0 0 0 0 0 0 0 0 0 0 0 0 0 0 0 0 0 0 0 0 3 6 11 13 13 10 9
0 0 0 0 0 0 0 0 0 0 0 0 0 0 0 0 0 0 0 0 0 0 0 0 0 0 0 0 0 0 0 6
0 0 0 0 0 0 0 0 0 0 0 0 0 0 0 0 0 0 0 0 0 0 0 0 0 0 0 0 0 0 0 0
0 0 0 0 0 0 0 0 0 0 0 0 0 0 0 0 0 0 0 0 0 0 0 0 0 0 0 0 0 0 0 0
0 0 0 0 0 0 0 0 0 0 0 0 0 0 0 0 0 0 0 0 0 0 0 0 0 0 0 0 0 0 0 0